Time,TemperatureF,DewpointF,PressureIn,WindDirection,WindDirectionDegrees,WindSpeedMPH,WindSpeedGustMPH,Humidity,HourlyPrecipIn,Conditions,Clouds,dailyrainin,SolarRadiationWatts/m^2,SoftwareType,DateUTC
2013-10-19 00:00:00,43.6,43.3,30.18,SSE,147,0.0,0.0,99,0.01,,---,0.02,0.00,VWS V14.01,2013-10-19 07:00:00,
2013-10-19 00:02:00,43.5,43.2,30.18,SSE,148,0.0,0.0,99,0.01,,---,0.00,0.00,VWS V14.01,2013-10-19 07:02:00,
2013-10-19 00:05:00,43.4,43.1,30.18,SE,146,0.0,0.0,99,0.01,,---,0.00,0.00,VWS V14.01,2013-10-19 07:05:00,
2013-10-19 00:07:00,43.3,43.0,30.18,SE,146,0.0,0.0,99,0.01,,---,0.00,0.00,VWS V14.01,2013-10-19 07:07:00,
2013-10-19 00:10:00,43.3,43.0,30.18,SE,146,0.0,0.0,99,0.01,,---,0.00,0.00,VWS V14.01,2013-10-19 07:10:00,
2013-10-19 00:12:00,43.3,43.0,30.18,SE,146,0.0,0.0,99,0.01,,---,0.00,0.00,VWS V14.01,2013-10-19 07:12:00,
2013-10-19 00:15:00,43.2,42.9,30.18,SSE,148,0.0,0.0,99,0.01,,---,0.00,0.00,VWS V14.01,2013-10-19 07:15:00,
2013-10-19 00:17:00,43.3,43.0,30.17,SSE,148,0.0,0.0,99,0.01,,---,0.00,0.00,VWS V14.01,2013-10-19 07:17:00,
2013-10-19 00:20:00,43.3,43.0,30.17,SE,145,0.0,0.0,99,0.01,,---,0.00,0.00,VWS V14.01,2013-10-19 07:20:00,
2013-10-19 00:22:00,43.2,42.9,30.17,SE,145,0.0,0.0,99,0.01,,---,0.00,0.00,VWS V14.01,2013-10-19 07:22:00,
2013-10-19 00:25:00,43.2,42.9,30.17,SE,146,0.0,0.0,99,0.01,,---,0.00,0.00,VWS V14.01,2013-10-19 07:25:00,
2013-10-19 00:27:00,43.4,43.1,30.17,SE,146,0.0,0.0,99,0.01,,---,0.00,0.00,VWS V14.01,2013-10-19 07:27:00,
2013-10-19 00:30:00,43.4,43.1,30.17,SE,145,0.0,0.0,99,0.01,,---,0.00,0.00,VWS V14.01,2013-10-19 07:30:00,
2013-10-19 00:32:00,43.6,43.3,30.17,SSE,148,0.0,0.0,99,0.01,,---,0.00,0.00,VWS V14.01,2013-10-19 07:32:00,
2013-10-19 00:35:00,43.6,43.3,30.17,SSE,148,0.0,0.0,99,0.01,,---,0.00,0.00,VWS V14.01,2013-10-19 07:35:00,
2013-10-19 00:37:00,43.6,43.3,30.17,SE,145,0.0,0.0,99,0.01,,---,0.00,0.00,VWS V14.01,2013-10-19 07:37:00,
2013-10-19 00:40:00,43.6,43.3,30.17,SE,145,0.0,0.0,99,0.01,,---,0.00,0.00,VWS V14.01,2013-10-19 07:40:00,
2013-10-19 00:42:00,43.8,43.5,30.17,SE,146,0.0,0.0,99,0.00,,---,0.00,0.00,VWS V14.01,2013-10-19 07:42:00,
2013-10-19 00:45:00,43.9,43.6,30.17,SE,145,0.0,0.0,99,0.00,,---,0.00,0.00,VWS V14.01,2013-10-19 07:45:00,
2013-10-19 00:47:00,44.1,43.8,30.17,SE,146,0.0,0.0,99,0.00,,---,0.00,0.00,VWS V14.01,2013-10-19 07:47:00,
2013-10-19 00:50:00,44.1,43.8,30.17,SE,146,0.0,0.0,99,0.00,,---,0.00,0.00,VWS V14.01,2013-10-19 07:50:00,
2013-10-19 00:52:00,44.0,43.7,30.17,SE,146,0.0,0.0,99,0.00,,---,0.00,0.00,VWS V14.01,2013-10-19 07:52:00,
2013-10-19 00:55:00,44.0,43.7,30.17,SSE,148,0.0,0.0,99,0.00,,---,0.00,0.00,VWS V14.01,2013-10-19 07:55:00,
2013-10-19 00:57:00,44.1,43.8,30.17,SE,146,0.0,0.0,99,0.00,,---,0.00,0.00,VWS V14.01,2013-10-19 07:57:00,
2013-10-19 01:00:00,44.1,43.8,30.17,SE,146,0.0,0.0,99,0.00,,---,0.00,0.00,VWS V14.01,2013-10-19 08:00:00,
2013-10-19 01:02:00,44.1,43.8,30.17,SSE,147,0.0,0.0,99,0.00,,---,0.00,0.00,VWS V14.01,2013-10-19 08:02:00,
2013-10-19 01:05:00,44.1,43.8,30.17,SSE,148,0.0,0.0,99,0.00,,---,0.00,0.00,VWS V14.01,2013-10-19 08:05:00,
2013-10-19 01:07:00,44.2,43.9,30.18,SE,146,0.0,0.0,99,0.00,,---,0.00,0.00,VWS V14.01,2013-10-19 08:07:00,
2013-10-19 01:10:00,44.2,43.9,30.17,SSE,148,0.0,0.0,99,0.00,,---,0.00,0.00,VWS V14.01,2013-10-19 08:10:00,
2013-10-19 01:12:00,44.3,44.0,30.18,SSE,148,0.0,0.0,99,0.00,,---,0.00,0.00,VWS V14.01,2013-10-19 08:12:00,
2013-10-19 01:15:00,44.2,43.9,30.18,SSE,147,0.0,0.0,99,0.00,,---,0.00,0.00,VWS V14.01,2013-10-19 08:15:00,
2013-10-19 01:17:00,44.3,44.0,30.18,SE,146,0.0,0.0,99,0.00,,---,0.00,0.00,VWS V14.01,2013-10-19 08:17:00,
2013-10-19 01:20:00,44.2,43.9,30.18,SE,146,0.0,0.0,99,0.00,,---,0.00,0.00,VWS V14.01,2013-10-19 08:20:00,
2013-10-19 01:22:00,44.2,43.9,30.18,SSE,147,0.0,0.0,99,0.00,,---,0.00,0.00,VWS V14.01,2013-10-19 08:22:00,
2013-10-19 01:25:00,44.2,43.9,30.18,SE,146,0.0,0.0,99,0.00,,---,0.00,0.00,VWS V14.01,2013-10-19 08:25:00,
2013-10-19 01:27:00,44.0,43.7,30.18,SE,146,0.0,0.0,99,0.00,,---,0.00,0.00,VWS V14.01,2013-10-19 08:27:00,
2013-10-19 01:30:00,43.4,43.1,30.17,SE,145,0.0,0.0,99,0.01,,---,0.00,0.00,VWS V14.01,2013-10-19 08:30:00,
2013-10-19 01:32:00,44.1,43.8,30.18,SE,145,0.0,0.0,99,0.00,,---,0.00,0.00,VWS V14.01,2013-10-19 08:32:00,
2013-10-19 01:35:00,43.6,43.3,30.17,SSE,148,0.0,0.0,99,0.01,,---,0.00,0.00,VWS V14.01,2013-10-19 08:35:00,
2013-10-19 01:37:00,44.6,44.3,30.18,SSE,148,0.0,0.0,99,0.00,,---,0.00,0.00,VWS V14.01,2013-10-19 08:37:00,
2013-10-19 01:40:00,43.6,43.3,30.17,SE,145,0.0,0.0,99,0.01,,---,0.00,0.00,VWS V14.01,2013-10-19 08:40:00,
2013-10-19 01:42:00,44.6,44.3,30.18,SSE,148,0.0,0.0,99,0.00,,---,0.00,0.00,VWS V14.01,2013-10-19 08:42:00,
2013-10-19 01:45:00,44.5,44.2,30.18,SSE,147,0.0,0.0,99,0.00,,---,0.00,0.00,VWS V14.01,2013-10-19 08:45:00,
2013-10-19 01:47:00,44.4,44.1,30.18,SE,146,0.0,0.0,99,0.00,,---,0.00,0.00,VWS V14.01,2013-10-19 08:47:00,
2013-10-19 01:50:00,44.4,44.1,30.18,SE,145,0.0,0.0,99,0.00,,---,0.00,0.00,VWS V14.01,2013-10-19 08:50:00,
2013-10-19 01:52:00,44.5,44.2,30.18,SE,146,0.0,0.0,99,0.00,,---,0.00,0.00,VWS V14.01,2013-10-19 08:52:00,
2013-10-19 01:55:00,44.6,44.3,30.18,SSE,147,0.0,0.0,99,0.00,,---,0.00,0.00,VWS V14.01,2013-10-19 08:55:00,
2013-10-19 01:57:00,44.8,44.8,30.18,SE,146,0.0,1.0,100,0.00,,---,0.00,0.00,VWS V14.01,2013-10-19 08:57:00,
2013-10-19 02:00:00,44.9,44.9,30.18,SSE,148,0.0,1.0,100,0.00,,---,0.00,0.00,VWS V14.01,2013-10-19 09:00:00,
2013-10-19 02:02:00,44.9,44.9,30.17,ESE,123,0.0,1.0,100,0.00,,---,0.00,0.00,VWS V14.01,2013-10-19 09:02:00,
2013-10-19 02:05:00,44.8,44.8,30.17,ESE,123,0.0,1.0,100,0.00,,---,0.00,0.00,VWS V14.01,2013-10-19 09:05:00,
2013-10-19 02:07:00,44.8,44.8,30.18,SE,125,0.0,1.0,100,0.00,,---,0.00,0.00,VWS V14.01,2013-10-19 09:07:00,
2013-10-19 02:10:00,44.9,44.9,30.18,SE,126,0.0,1.0,100,0.00,,---,0.00,0.00,VWS V14.01,2013-10-19 09:10:00,
2013-10-19 02:12:00,44.7,44.7,30.18,NNE,20,1.0,2.0,100,0.00,,---,0.00,0.00,VWS V14.01,2013-10-19 09:12:00,
2013-10-19 02:15:00,44.7,44.7,30.18,NNE,20,0.0,2.0,100,0.00,,---,0.00,0.00,VWS V14.01,2013-10-19 09:15:00,
2013-10-19 02:17:00,44.6,44.3,30.18,NNE,20,1.0,1.0,99,0.00,,---,0.00,0.00,VWS V14.01,2013-10-19 09:17:00,
2013-10-19 02:20:00,44.6,44.3,30.18,NNE,20,0.0,1.0,99,0.00,,---,0.00,0.00,VWS V14.01,2013-10-19 09:20:00,
2013-10-19 02:22:00,44.6,44.3,30.18,NNE,20,1.0,1.0,99,0.00,,---,0.00,0.00,VWS V14.01,2013-10-19 09:22:00,
2013-10-19 02:25:00,44.6,44.3,30.18,NNE,20,0.0,1.0,99,0.00,,---,0.00,0.00,VWS V14.01,2013-10-19 09:25:00,
2013-10-19 02:27:00,44.6,44.3,30.18,NNE,20,0.0,2.0,99,0.00,,---,0.00,0.00,VWS V14.01,2013-10-19 09:27:00,
2013-10-19 02:30:00,44.6,44.3,30.18,NNE,19,0.0,2.0,99,0.00,,---,0.00,0.00,VWS V14.01,2013-10-19 09:30:00,
2013-10-19 02:32:00,44.5,44.2,30.18,NNE,20,0.0,2.0,99,0.00,,---,0.00,0.00,VWS V14.01,2013-10-19 09:32:00,
2013-10-19 02:35:00,44.5,44.2,30.18,NNE,20,1.0,2.0,99,0.00,,---,0.00,0.00,VWS V14.01,2013-10-19 09:35:00,
2013-10-19 02:37:00,44.4,44.1,30.17,NNE,20,0.0,2.0,99,0.00,,---,0.00,0.00,VWS V14.01,2013-10-19 09:37:00,
2013-10-19 02:40:00,44.4,44.1,30.18,NNE,21,0.0,2.0,99,0.00,,---,0.00,0.00,VWS V14.01,2013-10-19 09:40:00,
2013-10-19 02:42:00,44.2,44.2,30.18,NNE,20,0.0,2.0,100,0.00,,---,0.00,0.00,VWS V14.01,2013-10-19 09:42:00,
2013-10-19 02:45:00,44.2,44.2,30.18,NNE,20,1.0,2.0,100,0.00,,---,0.00,0.00,VWS V14.01,2013-10-19 09:45:00,
2013-10-19 02:47:00,44.1,44.1,30.17,NNE,21,1.0,2.0,100,0.00,,---,0.00,0.00,VWS V14.01,2013-10-19 09:47:00,
2013-10-19 02:50:00,44.1,44.1,30.17,NNE,21,0.0,2.0,100,0.00,,---,0.00,0.00,VWS V14.01,2013-10-19 09:50:00,
2013-10-19 02:52:00,44.1,44.1,30.18,NNE,21,0.0,1.0,100,0.00,,---,0.00,0.00,VWS V14.01,2013-10-19 09:52:00,
2013-10-19 02:55:00,44.1,44.1,30.17,NNE,21,0.0,1.0,100,0.00,,---,0.00,0.00,VWS V14.01,2013-10-19 09:55:00,
2013-10-19 02:57:00,44.2,44.2,30.17,NNE,20,1.0,2.0,100,0.00,,---,0.00,0.00,VWS V14.01,2013-10-19 09:57:00,
2013-10-19 03:00:00,44.2,44.2,30.17,NNE,20,0.0,2.0,100,0.00,,---,0.00,0.00,VWS V14.01,2013-10-19 10:00:00,
2013-10-19 03:02:00,44.1,44.1,30.18,NNE,20,0.0,0.0,100,0.00,,---,0.00,0.00,VWS V14.01,2013-10-19 10:02:00,
2013-10-19 03:05:00,44.2,44.2,30.18,NNE,21,0.0,0.0,100,0.00,,---,0.00,0.00,VWS V14.01,2013-10-19 10:05:00,
2013-10-19 03:07:00,44.2,44.2,30.18,NNE,21,0.0,0.0,100,0.00,,---,0.00,0.00,VWS V14.01,2013-10-19 10:07:00,
2013-10-19 03:10:00,44.2,43.9,30.18,NNE,21,0.0,1.0,99,0.00,,---,0.00,0.00,VWS V14.01,2013-10-19 10:10:00,
2013-10-19 03:12:00,44.1,43.8,30.18,NNE,21,1.0,1.0,99,0.00,,---,0.00,0.00,VWS V14.01,2013-10-19 10:12:00,
2013-10-19 03:15:00,44.1,43.8,30.18,NNE,21,0.0,2.0,99,0.00,,---,0.00,0.00,VWS V14.01,2013-10-19 10:15:00,
2013-10-19 03:17:00,44.1,43.8,30.17,NNE,21,0.0,2.0,99,0.00,,---,0.00,0.00,VWS V14.01,2013-10-19 10:17:00,
2013-10-19 03:20:00,44.1,44.1,30.17,NNE,21,0.0,2.0,100,0.00,,---,0.00,0.00,VWS V14.01,2013-10-19 10:20:00,
2013-10-19 03:22:00,44.1,43.8,30.17,NNE,21,0.0,0.0,99,0.00,,---,0.00,0.00,VWS V14.01,2013-10-19 10:22:00,
2013-10-19 03:25:00,44.1,44.1,30.17,NNE,21,0.0,0.0,100,0.00,,---,0.00,0.00,VWS V14.01,2013-10-19 10:25:00,
2013-10-19 03:27:00,44.1,44.1,30.17,NNE,21,0.0,1.0,100,0.00,,---,0.00,0.00,VWS V14.01,2013-10-19 10:27:00,
2013-10-19 03:30:00,44.6,44.3,30.18,NNE,19,0.0,2.0,99,0.00,,---,0.00,0.00,VWS V14.01,2013-10-19 10:30:00,
2013-10-19 03:32:00,44.1,44.1,30.17,NNE,20,0.0,0.0,100,0.00,,---,0.00,0.00,VWS V14.01,2013-10-19 10:32:00,
2013-10-19 03:35:00,44.1,44.1,30.17,NNE,21,0.0,0.0,100,0.00,,---,0.00,0.00,VWS V14.01,2013-10-19 10:35:00,
2013-10-19 03:37:00,44.2,44.2,30.17,NNE,21,1.0,2.0,100,0.00,,---,0.00,0.00,VWS V14.01,2013-10-19 10:37:00,
2013-10-19 03:40:00,44.1,44.1,30.17,NNE,21,0.0,2.0,100,0.00,,---,0.00,0.00,VWS V14.01,2013-10-19 10:40:00,
2013-10-19 03:42:00,44.1,44.1,30.17,NNE,26,0.0,2.0,100,0.00,,---,0.00,0.00,VWS V14.01,2013-10-19 10:42:00,
2013-10-19 03:45:00,44.1,44.1,30.17,NNE,26,0.0,2.0,100,0.00,,---,0.00,0.00,VWS V14.01,2013-10-19 10:45:00,
2013-10-19 03:47:00,44.1,44.1,30.17,NNE,26,0.0,1.0,100,0.00,,---,0.00,0.00,VWS V14.01,2013-10-19 10:47:00,
2013-10-19 03:50:00,44.1,44.1,30.17,NNE,26,0.0,1.0,100,0.00,,---,0.00,0.00,VWS V14.01,2013-10-19 10:50:00,
2013-10-19 03:52:00,44.0,44.0,30.17,NE,42,0.0,2.0,100,0.00,,---,0.00,0.00,VWS V14.01,2013-10-19 10:52:00,
2013-10-19 03:55:00,44.0,44.0,30.17,NE,41,1.0,2.0,100,0.00,,---,0.00,0.00,VWS V14.01,2013-10-19 10:55:00,
2013-10-19 03:57:00,44.0,44.0,30.17,NE,41,0.0,1.0,100,0.00,,---,0.00,0.00,VWS V14.01,2013-10-19 10:57:00,
2013-10-19 04:00:00,44.0,44.0,30.17,NE,41,0.0,1.0,100,0.00,,---,0.00,0.00,VWS V14.01,2013-10-19 11:00:00,
2013-10-19 04:02:00,44.0,44.0,30.17,NE,41,0.0,0.0,100,0.00,,---,0.00,0.00,VWS V14.01,2013-10-19 11:02:00,
2013-10-19 04:05:00,44.0,44.0,30.17,NE,42,0.0,0.0,100,0.00,,---,0.00,0.00,VWS V14.01,2013-10-19 11:05:00,
2013-10-19 04:07:00,44.1,44.1,30.17,NE,41,0.0,0.0,100,0.00,,---,0.00,0.00,VWS V14.01,2013-10-19 11:07:00,
2013-10-19 04:10:00,44.1,44.1,30.17,NE,41,0.0,0.0,100,0.00,,---,0.00,0.00,VWS V14.01,2013-10-19 11:10:00,
2013-10-19 04:12:00,44.1,44.1,30.17,NE,41,0.0,1.0,100,0.00,,---,0.00,0.00,VWS V14.01,2013-10-19 11:12:00,
2013-10-19 04:15:00,44.1,44.1,30.17,NE,41,0.0,1.0,100,0.00,,---,0.00,0.00,VWS V14.01,2013-10-19 11:15:00,
2013-10-19 04:17:00,44.0,44.0,30.17,NE,42,0.0,0.0,100,0.00,,---,0.00,0.00,VWS V14.01,2013-10-19 11:17:00,
2013-10-19 04:20:00,44.0,44.0,30.17,NE,42,0.0,0.0,100,0.00,,---,0.00,0.00,VWS V14.01,2013-10-19 11:20:00,
2013-10-19 04:22:00,44.0,44.0,30.17,NE,41,0.0,0.0,100,0.00,,---,0.00,0.00,VWS V14.01,2013-10-19 11:22:00,
2013-10-19 04:25:00,44.1,44.1,30.17,NE,41,0.0,0.0,100,0.00,,---,0.00,0.00,VWS V14.01,2013-10-19 11:25:00,
2013-10-19 04:27:00,44.1,44.1,30.17,NE,42,0.0,0.0,100,0.00,,---,0.00,0.00,VWS V14.01,2013-10-19 11:27:00,
2013-10-19 04:30:00,44.1,44.1,30.17,NE,42,0.0,0.0,100,0.00,,---,0.00,0.00,VWS V14.01,2013-10-19 11:30:00,
2013-10-19 04:32:00,44.1,44.1,30.17,NE,42,0.0,0.0,100,0.00,,---,0.00,0.00,VWS V14.01,2013-10-19 11:32:00,
2013-10-19 04:35:00,44.1,44.1,30.17,NE,42,0.0,0.0,100,0.00,,---,0.00,0.00,VWS V14.01,2013-10-19 11:35:00,
2013-10-19 04:37:00,44.1,44.1,30.17,NE,42,1.0,1.0,100,0.00,,---,0.00,0.00,VWS V14.01,2013-10-19 11:37:00,
2013-10-19 04:40:00,44.1,44.1,30.17,NE,42,0.0,2.0,100,0.00,,---,0.00,0.00,VWS V14.01,2013-10-19 11:40:00,
2013-10-19 04:42:00,43.9,43.9,30.17,NE,41,0.0,1.0,100,0.00,,---,0.00,0.00,VWS V14.01,2013-10-19 11:42:00,
2013-10-19 04:45:00,43.9,43.9,30.17,NE,42,0.0,1.0,100,0.00,,---,0.00,0.00,VWS V14.01,2013-10-19 11:45:00,
2013-10-19 04:47:00,43.9,43.9,30.17,NE,42,0.0,0.0,100,0.00,,---,0.00,0.00,VWS V14.01,2013-10-19 11:47:00,
2013-10-19 04:50:00,43.9,43.9,30.17,NE,42,0.0,0.0,100,0.00,,---,0.00,0.00,VWS V14.01,2013-10-19 11:50:00,
2013-10-19 04:52:00,43.9,43.9,30.17,NE,41,0.0,0.0,100,0.00,,---,0.00,0.00,VWS V14.01,2013-10-19 11:52:00,
2013-10-19 04:55:00,43.9,43.9,30.17,NE,41,0.0,0.0,100,0.00,,---,0.00,0.00,VWS V14.01,2013-10-19 11:55:00,
2013-10-19 04:57:00,43.9,43.9,30.17,NE,41,1.0,1.0,100,0.00,,---,0.00,0.00,VWS V14.01,2013-10-19 11:57:00,
2013-10-19 05:00:00,43.9,43.9,30.17,NE,42,2.0,2.0,100,0.00,,---,0.00,0.00,VWS V14.01,2013-10-19 12:00:00,
2013-10-19 05:02:00,43.8,43.8,30.17,NE,41,2.0,2.0,100,0.00,,---,0.00,0.00,VWS V14.01,2013-10-19 12:02:00,
2013-10-19 05:05:00,43.7,43.7,30.18,NE,42,1.0,2.0,100,0.00,,---,0.00,0.00,VWS V14.01,2013-10-19 12:05:00,
2013-10-19 05:07:00,43.6,43.6,30.18,NE,42,0.0,1.0,100,0.00,,---,0.00,0.00,VWS V14.01,2013-10-19 12:07:00,
2013-10-19 05:10:00,43.6,43.6,30.18,NE,42,0.0,1.0,100,0.00,,---,0.00,0.00,VWS V14.01,2013-10-19 12:10:00,
2013-10-19 05:12:00,43.6,43.6,30.18,NE,42,0.0,0.0,100,0.00,,---,0.00,0.00,VWS V14.01,2013-10-19 12:12:00,
2013-10-19 05:15:00,43.6,43.6,30.17,NE,42,0.0,0.0,100,0.00,,---,0.00,0.00,VWS V14.01,2013-10-19 12:15:00,
2013-10-19 05:17:00,43.5,43.5,30.17,NE,41,2.0,2.0,100,0.00,,---,0.00,0.00,VWS V14.01,2013-10-19 12:17:00,
2013-10-19 05:20:00,43.4,43.4,30.18,NE,41,1.0,2.0,100,0.00,,---,0.00,0.00,VWS V14.01,2013-10-19 12:20:00,
2013-10-19 05:22:00,43.2,43.2,30.18,NE,41,0.0,1.0,100,0.00,,---,0.00,0.00,VWS V14.01,2013-10-19 12:22:00,
2013-10-19 05:25:00,43.2,43.2,30.17,NE,41,0.0,1.0,100,0.00,,---,0.00,0.00,VWS V14.01,2013-10-19 12:25:00,
2013-10-19 05:27:00,43.1,43.1,30.17,NE,42,0.0,0.0,100,0.00,,---,0.00,0.00,VWS V14.01,2013-10-19 12:27:00,
2013-10-19 05:30:00,43.2,43.2,30.17,NE,41,0.0,1.0,100,0.00,,---,0.00,0.00,VWS V14.01,2013-10-19 12:30:00,
2013-10-19 05:32:00,43.1,43.1,30.17,NE,42,0.0,0.0,100,0.00,,---,0.00,0.00,VWS V14.01,2013-10-19 12:32:00,
2013-10-19 05:35:00,43.1,43.1,30.17,NE,42,0.0,0.0,100,0.00,,---,0.00,0.00,VWS V14.01,2013-10-19 12:35:00,
2013-10-19 05:37:00,43.0,43.0,30.17,NE,42,0.0,2.0,100,0.00,,---,0.00,0.00,VWS V14.01,2013-10-19 12:37:00,
2013-10-19 05:40:00,42.9,42.9,30.17,NE,42,0.0,2.0,100,0.00,,---,0.00,0.00,VWS V14.01,2013-10-19 12:40:00,
2013-10-19 05:42:00,42.9,42.9,30.17,NE,42,0.0,1.0,100,0.00,,---,0.00,0.00,VWS V14.01,2013-10-19 12:42:00,
2013-10-19 05:45:00,42.9,42.9,30.17,NE,42,0.0,1.0,100,0.00,,---,0.00,0.00,VWS V14.01,2013-10-19 12:45:00,
2013-10-19 05:47:00,42.9,42.9,30.17,NE,41,0.0,0.0,100,0.00,,---,0.00,0.00,VWS V14.01,2013-10-19 12:47:00,
2013-10-19 05:50:00,43.9,43.9,30.17,NE,42,0.0,0.0,100,0.00,,---,0.00,0.00,VWS V14.01,2013-10-19 12:50:00,
2013-10-19 05:52:00,42.8,42.8,30.17,NE,42,0.0,0.0,100,0.00,,---,0.00,0.00,VWS V14.01,2013-10-19 12:52:00,
2013-10-19 05:55:00,42.8,42.8,30.17,NE,42,0.0,0.0,100,0.00,,---,0.00,0.00,VWS V14.01,2013-10-19 12:55:00,
2013-10-19 05:57:00,42.7,42.7,30.17,NE,41,0.0,0.0,100,0.00,,---,0.00,0.00,VWS V14.01,2013-10-19 12:57:00,
2013-10-19 06:00:00,42.7,42.7,30.17,NE,42,0.0,0.0,100,0.00,,---,0.00,0.00,VWS V14.01,2013-10-19 13:00:00,
2013-10-19 06:02:00,42.7,42.7,30.17,NE,42,2.0,2.0,100,0.00,,---,0.00,0.00,VWS V14.01,2013-10-19 13:02:00,
2013-10-19 06:05:00,42.7,42.7,30.17,NE,41,0.0,2.0,100,0.00,,---,0.00,0.00,VWS V14.01,2013-10-19 13:05:00,
2013-10-19 06:07:00,42.7,42.7,30.17,NE,42,0.0,2.0,100,0.00,,---,0.00,0.00,VWS V14.01,2013-10-19 13:07:00,
2013-10-19 06:10:00,42.7,42.7,30.17,NE,42,0.0,2.0,100,0.00,,---,0.00,0.00,VWS V14.01,2013-10-19 13:10:00,
2013-10-19 06:12:00,42.5,42.5,30.17,NE,41,0.0,2.0,100,0.00,,---,0.00,0.00,VWS V14.01,2013-10-19 13:12:00,
2013-10-19 06:15:00,42.6,42.6,30.17,NE,42,0.0,2.0,100,0.00,,---,0.00,0.00,VWS V14.01,2013-10-19 13:15:00,
2013-10-19 06:17:00,42.6,42.6,30.17,NE,41,0.0,1.0,100,0.00,,---,0.00,0.00,VWS V14.01,2013-10-19 13:17:00,
2013-10-19 06:20:00,42.6,42.6,30.17,NE,41,0.0,1.0,100,0.00,,---,0.00,0.00,VWS V14.01,2013-10-19 13:20:00,
2013-10-19 06:22:00,42.6,42.6,30.17,NE,42,1.0,1.0,100,0.00,,---,0.00,0.00,VWS V14.01,2013-10-19 13:22:00,
2013-10-19 06:25:00,42.6,42.6,30.17,NE,41,0.0,1.0,100,0.00,,---,0.00,0.00,VWS V14.01,2013-10-19 13:25:00,
2013-10-19 06:27:00,42.7,42.7,30.17,NE,42,0.0,1.0,100,0.00,,---,0.00,0.00,VWS V14.01,2013-10-19 13:27:00,
2013-10-19 06:30:00,42.7,42.7,30.17,NE,42,0.0,1.0,100,0.00,,---,0.00,0.00,VWS V14.01,2013-10-19 13:30:00,
2013-10-19 06:32:00,42.6,42.6,30.17,NE,42,0.0,2.0,100,0.00,,---,0.00,0.00,VWS V14.01,2013-10-19 13:32:00,
2013-10-19 06:35:00,42.6,42.6,30.17,NE,42,2.0,2.0,100,0.00,,---,0.00,0.00,VWS V14.01,2013-10-19 13:35:00,
2013-10-19 06:37:00,42.6,42.6,30.18,NNE,25,2.0,2.0,100,0.00,,---,0.00,0.00,VWS V14.01,2013-10-19 13:37:00,
2013-10-19 06:40:00,42.6,42.6,30.18,NNE,17,2.0,3.0,100,0.00,,---,0.00,0.00,VWS V14.01,2013-10-19 13:40:00,
2013-10-19 06:42:00,42.6,42.6,30.18,NNE,16,0.0,2.0,100,0.00,,---,0.00,0.00,VWS V14.01,2013-10-19 13:42:00,
2013-10-19 06:45:00,42.6,42.6,30.18,NNE,17,2.0,2.0,100,0.00,,---,0.00,0.00,VWS V14.01,2013-10-19 13:45:00,
2013-10-19 06:47:00,42.7,42.7,30.18,NNE,17,0.0,2.0,100,0.00,,---,0.00,0.00,VWS V14.01,2013-10-19 13:47:00,
2013-10-19 06:50:00,42.7,42.7,30.18,NNE,16,0.0,2.0,100,0.00,,---,0.00,0.00,VWS V14.01,2013-10-19 13:50:00,
2013-10-19 06:52:00,42.6,42.6,30.18,NNE,16,0.0,1.0,100,0.00,,---,0.00,0.00,VWS V14.01,2013-10-19 13:52:00,
2013-10-19 06:55:00,42.6,42.6,30.18,NNE,16,0.0,1.0,100,0.00,,---,0.00,0.00,VWS V14.01,2013-10-19 13:55:00,
2013-10-19 06:57:00,42.6,42.6,30.18,NNE,16,0.0,1.0,100,0.00,,---,0.00,0.00,VWS V14.01,2013-10-19 13:57:00,
2013-10-19 07:00:00,42.6,42.6,30.18,NNE,16,0.0,2.0,100,0.00,,---,0.00,0.00,VWS V14.01,2013-10-19 14:00:00,
2013-10-19 07:02:00,42.6,42.6,30.18,NNE,16,0.0,2.0,100,0.00,,---,0.00,0.00,VWS V14.01,2013-10-19 14:02:00,
2013-10-19 07:05:00,42.5,42.5,30.18,NNE,16,0.0,2.0,100,0.00,,---,0.00,0.00,VWS V14.01,2013-10-19 14:05:00,
2013-10-19 07:07:00,42.4,42.4,30.18,NNE,17,0.0,0.0,100,0.00,,---,0.00,0.00,VWS V14.01,2013-10-19 14:07:00,
2013-10-19 07:10:00,42.4,42.4,30.18,NNE,16,0.0,0.0,100,0.00,,---,0.00,0.00,VWS V14.01,2013-10-19 14:10:00,
2013-10-19 07:12:00,42.4,42.4,30.18,NNE,16,0.0,0.0,100,0.00,,---,0.00,0.00,VWS V14.01,2013-10-19 14:12:00,
2013-10-19 07:15:00,42.4,42.4,30.18,NNE,16,0.0,0.0,100,0.00,,---,0.00,0.00,VWS V14.01,2013-10-19 14:15:00,
2013-10-19 07:17:00,42.3,42.3,30.18,NNE,16,0.0,0.0,100,0.00,,---,0.00,0.00,VWS V14.01,2013-10-19 14:17:00,
2013-10-19 07:20:00,42.3,42.3,30.18,NNE,17,0.0,0.0,100,0.00,,---,0.00,0.00,VWS V14.01,2013-10-19 14:20:00,
2013-10-19 07:22:00,42.4,42.4,30.18,NNE,17,0.0,0.0,100,0.00,,---,0.00,0.00,VWS V14.01,2013-10-19 14:22:00,
2013-10-19 07:25:00,42.4,42.4,30.18,NNE,16,0.0,0.0,100,0.00,,---,0.00,0.00,VWS V14.01,2013-10-19 14:25:00,
2013-10-19 07:27:00,42.4,42.4,30.18,NNE,16,1.0,1.0,100,0.00,,---,0.00,0.00,VWS V14.01,2013-10-19 14:27:00,
2013-10-19 07:30:00,42.4,42.4,30.18,NNE,17,0.0,1.0,100,0.00,,---,0.00,0.00,VWS V14.01,2013-10-19 14:30:00,
2013-10-19 07:32:00,42.2,42.2,30.18,NNE,17,0.0,0.0,100,0.00,,---,0.00,0.00,VWS V14.01,2013-10-19 14:32:00,
2013-10-19 07:35:00,42.3,42.3,30.18,NNE,17,0.0,0.0,100,0.00,,---,0.00,0.00,VWS V14.01,2013-10-19 14:35:00,
2013-10-19 07:37:00,42.1,42.1,30.18,NNE,16,0.0,0.0,100,0.00,,---,0.00,0.00,VWS V14.01,2013-10-19 14:37:00,
2013-10-19 07:40:00,42.1,42.1,30.18,NNE,16,0.0,0.0,100,0.00,,---,0.00,0.00,VWS V14.01,2013-10-19 14:40:00,
2013-10-19 07:42:00,42.2,42.2,30.18,NNE,17,0.0,0.0,100,0.00,,---,0.00,0.00,VWS V14.01,2013-10-19 14:42:00,
2013-10-19 07:45:00,42.1,42.1,30.18,NNE,17,0.0,0.0,100,0.00,,---,0.00,0.00,VWS V14.01,2013-10-19 14:45:00,
2013-10-19 07:47:00,42.1,42.1,30.18,NNE,16,0.0,0.0,100,0.00,,---,0.00,0.00,VWS V14.01,2013-10-19 14:47:00,
2013-10-19 07:50:00,42.1,42.1,30.18,NNE,17,0.0,0.0,100,0.00,,---,0.00,5.00,VWS V14.01,2013-10-19 14:50:00,
2013-10-19 07:52:00,42.1,42.1,30.17,NNE,16,0.0,0.0,100,0.00,,---,0.00,7.00,VWS V14.01,2013-10-19 14:52:00,
2013-10-19 07:55:00,42.1,42.1,30.17,NNE,17,0.0,0.0,100,0.00,,---,0.00,7.00,VWS V14.01,2013-10-19 14:55:00,
2013-10-19 07:57:00,42.1,42.1,30.18,NNE,17,0.0,1.0,100,0.00,,---,0.00,7.00,VWS V14.01,2013-10-19 14:57:00,
2013-10-19 08:00:00,42.1,42.1,30.18,NNE,16,1.0,1.0,100,0.00,,---,0.00,7.00,VWS V14.01,2013-10-19 15:00:00,
2013-10-19 08:02:00,42.1,42.1,30.18,NNE,17,1.0,2.0,100,0.00,,---,0.00,11.00,VWS V14.01,2013-10-19 15:02:00,
2013-10-19 08:05:00,42.1,42.1,30.18,NNE,16,0.0,2.0,100,0.00,,---,0.00,11.00,VWS V14.01,2013-10-19 15:05:00,
2013-10-19 08:07:00,42.2,42.2,30.18,NNE,17,2.0,2.0,100,0.00,,---,0.00,12.00,VWS V14.01,2013-10-19 15:07:00,
2013-10-19 08:10:00,42.2,42.2,30.18,NNE,16,0.0,2.0,100,0.00,,---,0.00,12.00,VWS V14.01,2013-10-19 15:10:00,
2013-10-19 08:12:00,42.3,42.3,30.18,NNE,17,0.0,2.0,100,0.00,,---,0.00,19.00,VWS V14.01,2013-10-19 15:12:00,
2013-10-19 08:15:00,42.2,42.2,30.18,NNE,16,1.0,2.0,100,0.00,,---,0.00,21.00,VWS V14.01,2013-10-19 15:15:00,
2013-10-19 08:17:00,42.3,42.3,30.18,NNE,16,2.0,3.0,100,0.00,,---,0.00,23.00,VWS V14.01,2013-10-19 15:17:00,
2013-10-19 08:20:00,42.3,42.3,30.18,NNE,17,1.0,3.0,100,0.00,,---,0.00,25.00,VWS V14.01,2013-10-19 15:20:00,
2013-10-19 08:22:00,42.1,42.1,30.18,NNE,16,0.0,2.0,100,0.00,,---,0.00,26.00,VWS V14.01,2013-10-19 15:22:00,
2013-10-19 08:25:00,42.1,42.1,30.18,NNE,16,0.0,2.0,100,0.00,,---,0.00,28.00,VWS V14.01,2013-10-19 15:25:00,
2013-10-19 08:27:00,42.2,42.2,30.18,NNE,16,0.0,0.0,100,0.00,,---,0.00,32.00,VWS V14.01,2013-10-19 15:27:00,
2013-10-19 08:30:00,42.3,42.3,30.18,NNE,16,0.0,0.0,100,0.00,,---,0.00,33.00,VWS V14.01,2013-10-19 15:30:00,
2013-10-19 08:32:00,42.4,42.4,30.18,NNE,17,1.0,3.0,100,0.00,,---,0.00,37.00,VWS V14.01,2013-10-19 15:32:00,
2013-10-19 08:35:00,42.4,42.4,30.18,NNE,17,0.0,3.0,100,0.00,,---,0.00,37.00,VWS V14.01,2013-10-19 15:35:00,
2013-10-19 08:37:00,42.2,42.2,30.18,NNE,16,1.0,2.0,100,0.00,,---,0.00,32.00,VWS V14.01,2013-10-19 15:37:00,
2013-10-19 08:40:00,42.3,42.3,30.18,NNE,16,0.0,2.0,100,0.00,,---,0.00,32.00,VWS V14.01,2013-10-19 15:40:00,
2013-10-19 08:42:00,42.3,42.3,30.19,North,5,1.0,3.0,100,0.00,,---,0.00,25.00,VWS V14.01,2013-10-19 15:42:00,
2013-10-19 08:45:00,42.3,42.3,30.19,North,5,1.0,3.0,100,0.00,,---,0.00,23.00,VWS V14.01,2013-10-19 15:45:00,
2013-10-19 08:47:00,42.2,42.2,30.19,North,350,0.0,3.0,100,0.00,,---,0.00,25.00,VWS V14.01,2013-10-19 15:47:00,
2013-10-19 08:50:00,42.2,42.2,30.19,North,360,0.0,3.0,100,0.00,,---,0.00,26.00,VWS V14.01,2013-10-19 15:50:00,
2013-10-19 08:52:00,42.0,42.0,30.19,North,350,0.0,1.0,100,0.00,,---,0.00,26.00,VWS V14.01,2013-10-19 15:52:00,
2013-10-19 08:55:00,42.0,42.0,30.19,North,350,2.0,2.0,100,0.00,,---,0.00,26.00,VWS V14.01,2013-10-19 15:55:00,
2013-10-19 08:57:00,42.0,42.0,30.19,North,351,0.0,2.0,100,0.00,,---,0.00,32.00,VWS V14.01,2013-10-19 15:57:00,
2013-10-19 09:00:00,42.0,42.0,30.19,North,360,0.0,2.0,100,0.00,,---,0.00,32.00,VWS V14.01,2013-10-19 16:00:00,
2013-10-19 09:02:00,42.1,42.1,30.20,North,360,0.0,1.0,100,0.00,,---,0.00,47.00,VWS V14.01,2013-10-19 16:02:00,
2013-10-19 09:05:00,42.2,42.2,30.20,North,350,1.0,1.0,100,0.00,,---,0.00,51.00,VWS V14.01,2013-10-19 16:05:00,
2013-10-19 09:07:00,42.3,42.3,30.20,North,360,0.0,1.0,100,0.00,,---,0.00,60.00,VWS V14.01,2013-10-19 16:07:00,
2013-10-19 09:10:00,42.4,42.4,30.20,North,350,0.0,1.0,100,0.00,,---,0.00,63.00,VWS V14.01,2013-10-19 16:10:00,
2013-10-19 09:12:00,42.4,42.4,30.20,North,360,0.0,1.0,100,0.00,,---,0.00,67.00,VWS V14.01,2013-10-19 16:12:00,
2013-10-19 09:15:00,42.4,42.4,30.20,North,350,0.0,1.0,100,0.00,,---,0.00,69.00,VWS V14.01,2013-10-19 16:15:00,
2013-10-19 09:17:00,42.4,42.4,30.20,North,350,0.0,0.0,100,0.00,,---,0.00,79.00,VWS V14.01,2013-10-19 16:17:00,
2013-10-19 09:20:00,42.4,42.4,30.20,North,350,1.0,1.0,100,0.00,,---,0.00,76.00,VWS V14.01,2013-10-19 16:20:00,
2013-10-19 09:22:00,42.5,42.5,30.20,North,360,0.0,1.0,100,0.00,,---,0.00,74.00,VWS V14.01,2013-10-19 16:22:00,
2013-10-19 09:25:00,42.5,42.5,30.20,North,350,0.0,1.0,100,0.00,,---,0.00,74.00,VWS V14.01,2013-10-19 16:25:00,
2013-10-19 09:27:00,42.7,42.7,30.20,North,350,0.0,0.0,100,0.00,,---,0.00,77.00,VWS V14.01,2013-10-19 16:27:00,
2013-10-19 09:30:00,42.7,42.7,30.20,North,350,0.0,0.0,100,0.00,,---,0.00,77.00,VWS V14.01,2013-10-19 16:30:00,
2013-10-19 09:32:00,42.9,42.9,30.20,North,350,0.0,0.0,100,0.00,,---,0.00,84.00,VWS V14.01,2013-10-19 16:32:00,
2013-10-19 09:35:00,42.9,42.9,30.20,North,350,0.0,0.0,100,0.00,,---,0.00,83.00,VWS V14.01,2013-10-19 16:35:00,
2013-10-19 09:37:00,43.0,43.0,30.20,North,350,0.0,1.0,100,0.00,,---,0.00,81.00,VWS V14.01,2013-10-19 16:37:00,
2013-10-19 09:40:00,42.9,42.9,30.20,North,350,0.0,1.0,100,0.00,,---,0.00,79.00,VWS V14.01,2013-10-19 16:40:00,
2013-10-19 09:42:00,43.2,43.2,30.20,North,350,0.0,0.0,100,0.00,,---,0.00,84.00,VWS V14.01,2013-10-19 16:42:00,
2013-10-19 09:45:00,43.2,43.2,30.20,North,350,0.0,0.0,100,0.00,,---,0.00,88.00,VWS V14.01,2013-10-19 16:45:00,
2013-10-19 09:47:00,43.2,43.2,30.20,North,350,0.0,0.0,100,0.00,,---,0.00,67.00,VWS V14.01,2013-10-19 16:47:00,
2013-10-19 09:50:00,43.3,43.3,30.20,North,350,0.0,0.0,100,0.00,,---,0.00,60.00,VWS V14.01,2013-10-19 16:50:00,
2013-10-19 09:52:00,43.3,43.3,30.21,North,360,0.0,1.0,100,0.00,,---,0.00,83.00,VWS V14.01,2013-10-19 16:52:00,
2013-10-19 09:55:00,43.4,43.4,30.21,North,350,0.0,1.0,100,0.00,,---,0.00,84.00,VWS V14.01,2013-10-19 16:55:00,
2013-10-19 09:57:00,43.5,43.5,30.21,North,360,0.0,1.0,100,0.00,,---,0.00,79.00,VWS V14.01,2013-10-19 16:57:00,
2013-10-19 10:00:00,43.6,43.6,30.21,North,350,0.0,1.0,100,0.00,,---,0.00,81.00,VWS V14.01,2013-10-19 17:00:00,
2013-10-19 10:02:00,43.6,43.6,30.21,North,360,0.0,1.0,100,0.00,,---,0.00,77.00,VWS V14.01,2013-10-19 17:02:00,
2013-10-19 10:05:00,43.6,43.6,30.21,North,360,0.0,1.0,100,0.00,,---,0.00,77.00,VWS V14.01,2013-10-19 17:05:00,
2013-10-19 10:07:00,43.7,43.7,30.21,North,360,0.0,0.0,100,0.00,,---,0.00,83.00,VWS V14.01,2013-10-19 17:07:00,
2013-10-19 10:10:00,43.8,43.8,30.20,North,350,0.0,0.0,100,0.00,,---,0.00,83.00,VWS V14.01,2013-10-19 17:10:00,
2013-10-19 10:12:00,43.9,43.9,30.20,North,360,0.0,0.0,100,0.00,,---,0.00,97.00,VWS V14.01,2013-10-19 17:12:00,
2013-10-19 10:15:00,43.8,43.8,30.20,North,360,0.0,0.0,100,0.00,,---,0.00,95.00,VWS V14.01,2013-10-19 17:15:00,
2013-10-19 10:17:00,43.6,43.6,30.21,North,350,0.0,0.0,100,0.00,,---,0.00,100.00,VWS V14.01,2013-10-19 17:17:00,
2013-10-19 10:20:00,43.6,43.6,30.21,North,350,0.0,0.0,100,0.00,,---,0.00,100.00,VWS V14.01,2013-10-19 17:20:00,
2013-10-19 10:22:00,43.7,43.7,30.20,North,350,0.0,2.0,100,0.00,,---,0.00,102.00,VWS V14.01,2013-10-19 17:22:00,
2013-10-19 10:25:00,43.7,43.7,30.20,North,350,0.0,2.0,100,0.00,,---,0.00,100.00,VWS V14.01,2013-10-19 17:25:00,
2013-10-19 10:27:00,44.0,44.0,30.20,North,360,0.0,0.0,100,0.00,,---,0.00,76.00,VWS V14.01,2013-10-19 17:27:00,
2013-10-19 10:30:00,44.0,44.0,30.20,North,350,0.0,0.0,100,0.00,,---,0.00,88.00,VWS V14.01,2013-10-19 17:30:00,
2013-10-19 10:32:00,44.0,44.0,30.20,North,350,0.0,0.0,100,0.00,,---,0.00,88.00,VWS V14.01,2013-10-19 17:32:00,
2013-10-19 10:35:00,44.1,44.1,30.20,North,350,0.0,0.0,100,0.00,,---,0.00,88.00,VWS V14.01,2013-10-19 17:35:00,
2013-10-19 10:37:00,44.3,44.3,30.20,North,360,0.0,1.0,100,0.00,,---,0.00,109.00,VWS V14.01,2013-10-19 17:37:00,
2013-10-19 10:40:00,44.4,44.4,30.20,North,360,0.0,1.0,100,0.00,,---,0.00,105.00,VWS V14.01,2013-10-19 17:40:00,
2013-10-19 10:42:00,44.2,44.2,30.20,North,360,0.0,0.0,100,0.00,,---,0.00,105.00,VWS V14.01,2013-10-19 17:42:00,
2013-10-19 10:45:00,44.2,44.2,30.20,NE,52,0.0,0.0,100,0.00,,---,0.00,105.00,VWS V14.01,2013-10-19 17:45:00,
2013-10-19 10:47:00,44.2,44.2,30.20,North,5,2.0,4.0,100,0.00,,---,0.00,100.00,VWS V14.01,2013-10-19 17:47:00,
2013-10-19 10:50:00,44.3,44.3,30.20,NNW,344,3.0,4.0,100,0.00,,---,0.00,107.00,VWS V14.01,2013-10-19 17:50:00,
2013-10-19 10:52:00,44.2,44.2,30.20,North,360,3.0,3.0,100,0.00,,---,0.00,113.00,VWS V14.01,2013-10-19 17:52:00,
2013-10-19 10:55:00,44.2,44.2,30.20,NNW,333,3.0,3.0,100,0.00,,---,0.00,114.00,VWS V14.01,2013-10-19 17:55:00,
2013-10-19 10:57:00,43.8,43.8,30.20,NNW,332,1.0,3.0,100,0.00,,---,0.00,120.00,VWS V14.01,2013-10-19 17:57:00,
2013-10-19 11:00:00,43.8,43.8,30.20,NNW,332,0.0,3.0,100,0.00,,---,0.00,121.00,VWS V14.01,2013-10-19 18:00:00,
2013-10-19 11:02:00,44.1,44.1,30.21,NNW,332,0.0,1.0,100,0.00,,---,0.00,127.00,VWS V14.01,2013-10-19 18:02:00,
2013-10-19 11:05:00,44.2,44.2,30.21,North,360,0.0,1.0,100,0.00,,---,0.00,128.00,VWS V14.01,2013-10-19 18:05:00,
2013-10-19 11:07:00,44.5,44.5,30.21,North,5,0.0,2.0,100,0.00,,---,0.00,141.00,VWS V14.01,2013-10-19 18:07:00,
2013-10-19 11:10:00,44.5,44.5,30.21,North,5,0.0,2.0,100,0.00,,---,0.00,139.00,VWS V14.01,2013-10-19 18:10:00,
2013-10-19 11:12:00,44.6,44.6,30.21,North,5,2.0,3.0,100,0.00,,---,0.00,135.00,VWS V14.01,2013-10-19 18:12:00,
2013-10-19 11:15:00,44.5,44.5,30.21,North,5,0.0,3.0,100,0.00,,---,0.00,134.00,VWS V14.01,2013-10-19 18:15:00,
2013-10-19 11:17:00,44.4,44.4,30.21,North,5,0.0,0.0,100,0.00,,---,0.00,134.00,VWS V14.01,2013-10-19 18:17:00,
2013-10-19 11:20:00,44.5,44.5,30.21,North,5,0.0,0.0,100,0.00,,---,0.00,132.00,VWS V14.01,2013-10-19 18:20:00,
2013-10-19 11:22:00,44.6,44.6,30.21,North,5,0.0,1.0,100,0.00,,---,0.00,121.00,VWS V14.01,2013-10-19 18:22:00,
2013-10-19 11:25:00,44.6,44.6,30.21,North,5,0.0,1.0,100,0.00,,---,0.00,120.00,VWS V14.01,2013-10-19 18:25:00,
2013-10-19 11:27:00,44.7,44.7,30.21,North,5,0.0,1.0,100,0.00,,---,0.00,121.00,VWS V14.01,2013-10-19 18:27:00,
2013-10-19 11:30:00,44.6,44.6,30.20,North,5,0.0,1.0,100,0.00,,---,0.00,123.00,VWS V14.01,2013-10-19 18:30:00,
2013-10-19 11:32:00,44.9,44.9,30.21,North,5,0.0,2.0,100,0.00,,---,0.00,118.00,VWS V14.01,2013-10-19 18:32:00,
2013-10-19 11:35:00,44.9,44.9,30.21,NNE,33,1.0,2.0,100,0.00,,---,0.00,120.00,VWS V14.01,2013-10-19 18:35:00,
2013-10-19 11:37:00,44.8,44.8,30.21,NNE,33,0.0,2.0,100,0.00,,---,0.00,125.00,VWS V14.01,2013-10-19 18:37:00,
2013-10-19 11:40:00,44.8,44.8,30.21,NNE,33,0.0,2.0,100,0.00,,---,0.00,123.00,VWS V14.01,2013-10-19 18:40:00,
2013-10-19 11:42:00,44.8,44.8,30.21,NNE,32,0.0,1.0,100,0.00,,---,0.00,116.00,VWS V14.01,2013-10-19 18:42:00,
2013-10-19 11:45:00,44.8,44.8,30.21,NNE,33,0.0,1.0,100,0.00,,---,0.00,116.00,VWS V14.01,2013-10-19 18:45:00,
2013-10-19 11:47:00,44.9,44.9,30.21,NNE,33,0.0,0.0,100,0.00,,---,0.00,111.00,VWS V14.01,2013-10-19 18:47:00,
2013-10-19 11:50:00,44.9,44.9,30.21,NE,34,0.0,0.0,100,0.00,,---,0.00,111.00,VWS V14.01,2013-10-19 18:50:00,
2013-10-19 11:52:00,45.1,45.1,30.21,North,360,4.0,4.0,100,0.00,,---,0.00,116.00,VWS V14.01,2013-10-19 18:52:00,
2013-10-19 11:55:00,45.1,45.1,30.21,WNW,292,3.0,4.0,100,0.00,,---,0.00,120.00,VWS V14.01,2013-10-19 18:55:00,
2013-10-19 11:57:00,44.8,44.8,30.21,North,360,0.0,3.0,100,0.00,,---,0.00,127.00,VWS V14.01,2013-10-19 18:57:00,
2013-10-19 12:00:00,44.8,44.8,30.21,North,360,0.0,3.0,100,0.00,,---,0.00,127.00,VWS V14.01,2013-10-19 19:00:00,
2013-10-19 12:02:00,44.9,44.9,30.21,North,360,0.0,0.0,100,0.00,,---,0.00,123.00,VWS V14.01,2013-10-19 19:02:00,
2013-10-19 12:05:00,45.0,45.0,30.21,WNW,292,0.0,0.0,100,0.00,,---,0.00,121.00,VWS V14.01,2013-10-19 19:05:00,
2013-10-19 12:07:00,45.0,45.0,30.20,WNW,292,0.0,2.0,100,0.00,,---,0.00,135.00,VWS V14.01,2013-10-19 19:07:00,
2013-10-19 12:10:00,45.2,45.2,30.20,WNW,293,2.0,2.0,100,0.00,,---,0.00,137.00,VWS V14.01,2013-10-19 19:10:00,
2013-10-19 12:12:00,45.2,45.2,30.20,WNW,294,0.0,2.0,100,0.00,,---,0.00,142.00,VWS V14.01,2013-10-19 19:12:00,
2013-10-19 12:15:00,45.1,45.1,30.20,North,360,0.0,2.0,100,0.00,,---,0.00,142.00,VWS V14.01,2013-10-19 19:15:00,
2013-10-19 12:17:00,45.2,45.2,30.20,North,360,0.0,0.0,100,0.00,,---,0.00,132.00,VWS V14.01,2013-10-19 19:17:00,
2013-10-19 12:20:00,45.3,45.3,30.20,North,360,2.0,2.0,100,0.00,,---,0.00,135.00,VWS V14.01,2013-10-19 19:20:00,
2013-10-19 12:22:00,45.3,45.3,30.20,WSW,256,2.0,2.0,100,0.00,,---,0.00,130.00,VWS V14.01,2013-10-19 19:22:00,
2013-10-19 12:25:00,45.3,45.3,30.20,SSW,208,2.0,2.0,100,0.00,,---,0.00,130.00,VWS V14.01,2013-10-19 19:25:00,
2013-10-19 12:27:00,45.3,45.3,30.20,SSW,209,0.0,2.0,100,0.00,,---,0.00,134.00,VWS V14.01,2013-10-19 19:27:00,
2013-10-19 12:30:00,45.4,45.4,30.20,SSW,208,0.0,2.0,100,0.00,,---,0.00,134.00,VWS V14.01,2013-10-19 19:30:00,
2013-10-19 12:32:00,45.5,45.5,30.20,SSW,211,1.0,2.0,100,0.00,,---,0.00,134.00,VWS V14.01,2013-10-19 19:32:00,
2013-10-19 12:35:00,45.5,45.5,30.20,SSW,209,1.0,2.0,100,0.00,,---,0.00,132.00,VWS V14.01,2013-10-19 19:35:00,
2013-10-19 12:37:00,45.6,45.6,30.20,North,360,0.0,1.0,100,0.00,,---,0.00,128.00,VWS V14.01,2013-10-19 19:37:00,
2013-10-19 12:40:00,45.6,45.6,30.20,SSW,211,0.0,1.0,100,0.00,,---,0.00,127.00,VWS V14.01,2013-10-19 19:40:00,
2013-10-19 12:42:00,45.8,45.8,30.20,SSW,211,1.0,1.0,100,0.00,,---,0.00,127.00,VWS V14.01,2013-10-19 19:42:00,
2013-10-19 12:45:00,45.8,45.8,30.20,SSW,209,0.0,1.0,100,0.00,,---,0.00,127.00,VWS V14.01,2013-10-19 19:45:00,
2013-10-19 12:47:00,45.9,45.9,30.20,SSW,211,0.0,0.0,100,0.00,,---,0.00,128.00,VWS V14.01,2013-10-19 19:47:00,
2013-10-19 12:50:00,46.0,46.0,30.20,SSW,209,0.0,0.0,100,0.00,,---,0.00,127.00,VWS V14.01,2013-10-19 19:50:00,
2013-10-19 12:52:00,46.4,46.4,30.20,WSW,256,0.0,0.0,100,0.00,,---,0.00,125.00,VWS V14.01,2013-10-19 19:52:00,
2013-10-19 12:55:00,46.3,46.3,30.20,North,360,1.0,1.0,100,0.00,,---,0.00,125.00,VWS V14.01,2013-10-19 19:55:00,
2013-10-19 12:57:00,46.0,46.0,30.20,WSW,256,0.0,1.0,100,0.00,,---,0.00,128.00,VWS V14.01,2013-10-19 19:57:00,
2013-10-19 13:00:00,46.0,46.0,30.20,WSW,256,0.0,1.0,100,0.00,,---,0.00,128.00,VWS V14.01,2013-10-19 20:00:00,
2013-10-19 13:02:00,46.3,46.3,30.20,West,259,0.0,1.0,100,0.00,,---,0.00,132.00,VWS V14.01,2013-10-19 20:02:00,
2013-10-19 13:05:00,46.3,46.3,30.20,SW,229,1.0,1.0,100,0.00,,---,0.00,134.00,VWS V14.01,2013-10-19 20:05:00,
2013-10-19 13:07:00,46.4,46.4,30.20,SSE,157,0.0,1.0,100,0.00,,---,0.00,137.00,VWS V14.01,2013-10-19 20:07:00,
2013-10-19 13:10:00,46.4,46.4,30.20,SSE,156,1.0,1.0,100,0.00,,---,0.00,141.00,VWS V14.01,2013-10-19 20:10:00,
2013-10-19 13:12:00,46.4,46.4,30.20,SE,130,0.0,1.0,100,0.00,,---,0.00,137.00,VWS V14.01,2013-10-19 20:12:00,
2013-10-19 13:15:00,46.4,46.4,30.20,SE,132,0.0,1.0,100,0.00,,---,0.00,141.00,VWS V14.01,2013-10-19 20:15:00,
2013-10-19 13:17:00,46.5,46.5,30.20,SE,132,0.0,1.0,100,0.00,,---,0.00,151.00,VWS V14.01,2013-10-19 20:17:00,
2013-10-19 13:20:00,46.5,46.5,30.20,SE,128,0.0,1.0,100,0.00,,---,0.00,151.00,VWS V14.01,2013-10-19 20:20:00,
2013-10-19 13:22:00,46.7,46.7,30.20,SE,128,0.0,0.0,100,0.00,,---,0.00,153.00,VWS V14.01,2013-10-19 20:22:00,
2013-10-19 13:25:00,46.8,46.8,30.20,SE,130,0.0,0.0,100,0.00,,---,0.00,155.00,VWS V14.01,2013-10-19 20:25:00,
2013-10-19 13:27:00,46.6,46.6,30.19,SE,130,0.0,0.0,100,0.00,,---,0.00,144.00,VWS V14.01,2013-10-19 20:27:00,
2013-10-19 13:30:00,46.6,46.3,30.19,SE,128,0.0,0.0,99,0.00,,---,0.00,144.00,VWS V14.01,2013-10-19 20:30:00,
2013-10-19 13:32:00,46.7,46.4,30.19,SE,130,0.0,0.0,99,0.00,,---,0.00,132.00,VWS V14.01,2013-10-19 20:32:00,
2013-10-19 13:35:00,46.6,46.3,30.19,SE,130,0.0,0.0,99,0.00,,---,0.00,130.00,VWS V14.01,2013-10-19 20:35:00,
2013-10-19 13:37:00,46.7,46.4,30.19,SE,128,0.0,0.0,99,0.00,,---,0.00,130.00,VWS V14.01,2013-10-19 20:37:00,
2013-10-19 13:40:00,46.8,46.5,30.19,SE,130,0.0,0.0,99,0.00,,---,0.00,130.00,VWS V14.01,2013-10-19 20:40:00,
2013-10-19 13:42:00,47.2,46.9,30.19,SE,130,0.0,1.0,99,0.00,,---,0.00,125.00,VWS V14.01,2013-10-19 20:42:00,
2013-10-19 13:45:00,47.4,47.1,30.19,SE,130,0.0,1.0,99,0.00,,---,0.00,109.00,VWS V14.01,2013-10-19 20:45:00,
2013-10-19 13:47:00,47.5,47.2,30.19,North,355,3.0,3.0,99,0.00,,---,0.00,148.00,VWS V14.01,2013-10-19 20:47:00,
2013-10-19 13:50:00,47.5,47.2,30.19,North,355,3.0,3.0,99,0.00,,---,0.00,148.00,VWS V14.01,2013-10-19 20:50:00,
2013-10-19 13:52:00,47.5,47.2,30.19,NNW,343,1.0,3.0,99,0.00,,---,0.00,163.00,VWS V14.01,2013-10-19 20:52:00,
2013-10-19 13:55:00,47.4,46.9,30.19,NNW,343,1.0,3.0,98,0.00,,---,0.00,160.00,VWS V14.01,2013-10-19 20:55:00,
2013-10-19 13:57:00,47.2,46.7,30.19,NNW,343,0.0,2.0,98,0.00,,---,0.00,141.00,VWS V14.01,2013-10-19 20:57:00,
2013-10-19 14:00:00,47.2,46.7,30.19,NNW,343,0.0,2.0,98,0.00,,---,0.00,151.00,VWS V14.01,2013-10-19 21:00:00,
2013-10-19 14:02:00,47.6,47.1,30.19,NNW,343,0.0,0.0,98,0.00,,---,0.00,163.00,VWS V14.01,2013-10-19 21:02:00,
2013-10-19 14:05:00,47.7,47.2,30.19,NNW,343,0.0,0.0,98,0.00,,---,0.00,163.00,VWS V14.01,2013-10-19 21:05:00,
2013-10-19 14:07:00,48.1,47.6,30.19,WNW,291,0.0,3.0,98,0.00,,---,0.00,167.00,VWS V14.01,2013-10-19 21:07:00,
2013-10-19 14:10:00,48.1,47.6,30.19,WNW,290,0.0,3.0,98,0.00,,---,0.00,165.00,VWS V14.01,2013-10-19 21:10:00,
2013-10-19 14:12:00,47.8,47.0,30.19,NW,317,0.0,2.0,97,0.00,,---,0.00,165.00,VWS V14.01,2013-10-19 21:12:00,
2013-10-19 14:15:00,47.8,47.0,30.19,NW,317,0.0,2.0,97,0.00,,---,0.00,165.00,VWS V14.01,2013-10-19 21:15:00,
2013-10-19 14:17:00,47.8,47.0,30.19,NW,317,0.0,0.0,97,0.00,,---,0.00,156.00,VWS V14.01,2013-10-19 21:17:00,
2013-10-19 14:20:00,47.8,47.0,30.19,NW,317,0.0,0.0,97,0.00,,---,0.00,153.00,VWS V14.01,2013-10-19 21:20:00,
2013-10-19 14:22:00,47.9,47.1,30.19,NW,317,2.0,2.0,97,0.00,,---,0.00,123.00,VWS V14.01,2013-10-19 21:22:00,
2013-10-19 14:25:00,47.9,47.1,30.19,NW,317,1.0,2.0,97,0.00,,---,0.00,135.00,VWS V14.01,2013-10-19 21:25:00,
2013-10-19 14:27:00,47.9,46.8,30.19,NW,317,1.0,3.0,96,0.00,,---,0.00,148.00,VWS V14.01,2013-10-19 21:27:00,
2013-10-19 14:30:00,47.9,46.8,30.19,NW,317,0.0,3.0,96,0.00,,---,0.00,141.00,VWS V14.01,2013-10-19 21:30:00,
2013-10-19 14:32:00,47.9,46.8,30.19,NW,317,0.0,1.0,96,0.00,,---,0.00,141.00,VWS V14.01,2013-10-19 21:32:00,
2013-10-19 14:35:00,47.9,46.8,30.19,NW,317,1.0,2.0,96,0.00,,---,0.00,141.00,VWS V14.01,2013-10-19 21:35:00,
2013-10-19 14:37:00,47.9,46.8,30.19,NW,317,0.0,1.0,96,0.00,,---,0.00,144.00,VWS V14.01,2013-10-19 21:37:00,
2013-10-19 14:40:00,47.9,46.8,30.19,NW,317,0.0,1.0,96,0.00,,---,0.00,146.00,VWS V14.01,2013-10-19 21:40:00,
2013-10-19 14:42:00,48.1,47.0,30.19,NW,317,1.0,2.0,96,0.00,,---,0.00,148.00,VWS V14.01,2013-10-19 21:42:00,
2013-10-19 14:45:00,48.1,47.0,30.19,NW,317,1.0,2.0,96,0.00,,---,0.00,149.00,VWS V14.01,2013-10-19 21:45:00,
2013-10-19 14:47:00,48.3,46.9,30.19,NW,317,0.0,1.0,95,0.00,,---,0.00,142.00,VWS V14.01,2013-10-19 21:47:00,
2013-10-19 14:50:00,48.3,47.2,30.19,NW,317,0.0,1.0,96,0.00,,---,0.00,141.00,VWS V14.01,2013-10-19 21:50:00,
2013-10-19 14:52:00,48.6,47.5,30.19,NW,317,0.0,1.0,96,0.00,,---,0.00,130.00,VWS V14.01,2013-10-19 21:52:00,
2013-10-19 14:55:00,48.5,47.4,30.19,NW,317,0.0,1.0,96,0.00,,---,0.00,132.00,VWS V14.01,2013-10-19 21:55:00,
2013-10-19 14:57:00,48.6,47.2,30.19,NW,317,1.0,1.0,95,0.00,,---,0.00,123.00,VWS V14.01,2013-10-19 21:57:00,
2013-10-19 15:00:00,48.6,47.2,30.19,NW,317,0.0,1.0,95,0.00,,---,0.00,123.00,VWS V14.01,2013-10-19 22:00:00,
2013-10-19 15:02:00,48.7,47.3,30.19,WNW,284,0.0,2.0,95,0.00,,---,0.00,128.00,VWS V14.01,2013-10-19 22:02:00,
2013-10-19 15:05:00,48.6,47.2,30.19,WNW,283,0.0,2.0,95,0.00,,---,0.00,130.00,VWS V14.01,2013-10-19 22:05:00,
2013-10-19 15:07:00,48.7,47.3,30.19,South,175,0.0,3.0,95,0.00,,---,0.00,141.00,VWS V14.01,2013-10-19 22:07:00,
2013-10-19 15:10:00,48.7,47.3,30.19,South,176,0.0,3.0,95,0.00,,---,0.00,141.00,VWS V14.01,2013-10-19 22:10:00,
2013-10-19 15:12:00,49.0,47.6,30.19,South,176,0.0,0.0,95,0.00,,---,0.00,121.00,VWS V14.01,2013-10-19 22:12:00,
2013-10-19 15:15:00,49.0,47.6,30.19,South,177,0.0,0.0,95,0.00,,---,0.00,118.00,VWS V14.01,2013-10-19 22:15:00,
2013-10-19 15:17:00,49.1,47.5,30.19,South,177,0.0,0.0,94,0.00,,---,0.00,97.00,VWS V14.01,2013-10-19 22:17:00,
2013-10-19 15:20:00,49.2,47.8,30.19,South,177,0.0,0.0,95,0.00,,---,0.00,97.00,VWS V14.01,2013-10-19 22:20:00,
2013-10-19 15:22:00,49.2,47.5,30.19,SSW,200,1.0,1.0,94,0.00,,---,0.00,93.00,VWS V14.01,2013-10-19 22:22:00,
2013-10-19 15:25:00,49.2,47.5,30.19,West,279,0.0,2.0,94,0.00,,---,0.00,95.00,VWS V14.01,2013-10-19 22:25:00,
2013-10-19 15:27:00,49.3,47.9,30.19,West,276,0.0,3.0,95,0.00,,---,0.00,93.00,VWS V14.01,2013-10-19 22:27:00,
2013-10-19 15:30:00,49.3,47.7,30.19,West,277,0.0,3.0,94,0.00,,---,0.00,91.00,VWS V14.01,2013-10-19 22:30:00,
2013-10-19 15:32:00,49.3,47.7,30.19,North,5,1.0,2.0,94,0.00,,---,0.00,90.00,VWS V14.01,2013-10-19 22:32:00,
2013-10-19 15:35:00,49.3,47.7,30.19,North,5,0.0,2.0,94,0.00,,---,0.00,90.00,VWS V14.01,2013-10-19 22:35:00,
2013-10-19 15:37:00,49.3,47.7,30.19,ENE,71,0.0,2.0,94,0.00,,---,0.00,83.00,VWS V14.01,2013-10-19 22:37:00,
2013-10-19 15:40:00,49.3,47.7,30.19,ENE,70,0.0,2.0,94,0.00,,---,0.00,83.00,VWS V14.01,2013-10-19 22:40:00,
2013-10-19 15:42:00,49.3,47.7,30.19,ENE,71,0.0,1.0,94,0.00,,---,0.00,83.00,VWS V14.01,2013-10-19 22:42:00,
2013-10-19 15:45:00,49.3,47.7,30.19,ENE,70,0.0,1.0,94,0.00,,---,0.00,83.00,VWS V14.01,2013-10-19 22:45:00,
2013-10-19 15:47:00,49.4,48.0,30.19,North,350,1.0,3.0,95,0.00,,---,0.00,83.00,VWS V14.01,2013-10-19 22:47:00,
2013-10-19 15:50:00,49.4,47.8,30.19,North,350,0.0,3.0,94,0.00,,---,0.00,83.00,VWS V14.01,2013-10-19 22:50:00,
2013-10-19 15:52:00,49.3,47.7,30.18,North,350,0.0,1.0,94,0.00,,---,0.00,86.00,VWS V14.01,2013-10-19 22:52:00,
2013-10-19 15:55:00,49.3,47.7,30.18,North,350,0.0,1.0,94,0.00,,---,0.00,84.00,VWS V14.01,2013-10-19 22:55:00,
2013-10-19 15:57:00,49.3,47.7,30.18,North,350,0.0,0.0,94,0.00,,---,0.00,79.00,VWS V14.01,2013-10-19 22:57:00,
2013-10-19 16:00:00,49.3,47.7,30.18,North,350,0.0,0.0,94,0.00,,---,0.00,79.00,VWS V14.01,2013-10-19 23:00:00,
2013-10-19 16:02:00,49.3,47.7,30.18,North,350,1.0,1.0,94,0.00,,---,0.00,79.00,VWS V14.01,2013-10-19 23:02:00,
2013-10-19 16:05:00,49.3,47.7,30.18,North,350,0.0,1.0,94,0.00,,---,0.00,79.00,VWS V14.01,2013-10-19 23:05:00,
2013-10-19 16:07:00,49.4,47.8,30.18,North,350,0.0,1.0,94,0.00,,---,0.00,76.00,VWS V14.01,2013-10-19 23:07:00,
2013-10-19 16:10:00,49.4,48.0,30.18,North,350,0.0,1.0,95,0.00,,---,0.00,76.00,VWS V14.01,2013-10-19 23:10:00,
2013-10-19 16:12:00,49.5,47.8,30.18,NE,36,0.0,1.0,94,0.00,,---,0.00,74.00,VWS V14.01,2013-10-19 23:12:00,
2013-10-19 16:15:00,49.4,47.8,30.18,NE,36,0.0,1.0,94,0.00,,---,0.00,72.00,VWS V14.01,2013-10-19 23:15:00,
2013-10-19 16:17:00,49.4,47.8,30.18,NE,36,0.0,0.0,94,0.00,,---,0.00,58.00,VWS V14.01,2013-10-19 23:17:00,
2013-10-19 16:20:00,49.5,47.8,30.18,NE,36,0.0,0.0,94,0.00,,---,0.00,58.00,VWS V14.01,2013-10-19 23:20:00,
2013-10-19 16:22:00,49.5,47.6,30.18,NE,42,0.0,2.0,93,0.00,,---,0.00,53.00,VWS V14.01,2013-10-19 23:22:00,
2013-10-19 16:25:00,49.5,47.6,30.18,NE,41,0.0,2.0,93,0.00,,---,0.00,53.00,VWS V14.01,2013-10-19 23:25:00,
2013-10-19 16:27:00,49.5,47.6,30.19,ENE,76,0.0,3.0,93,0.00,,---,0.00,44.00,VWS V14.01,2013-10-19 23:27:00,
2013-10-19 16:30:00,49.5,47.8,30.19,ENE,76,1.0,3.0,94,0.00,,---,0.00,42.00,VWS V14.01,2013-10-19 23:30:00,
2013-10-19 16:32:00,49.6,48.0,30.18,ENE,76,0.0,1.0,94,0.00,,---,0.00,49.00,VWS V14.01,2013-10-19 23:32:00,
2013-10-19 16:35:00,49.7,48.0,30.18,ENE,76,0.0,1.0,94,0.00,,---,0.00,47.00,VWS V14.01,2013-10-19 23:35:00,
2013-10-19 16:37:00,49.7,48.0,30.18,ENE,76,2.0,2.0,94,0.00,,---,0.00,51.00,VWS V14.01,2013-10-19 23:37:00,
2013-10-19 16:40:00,49.7,48.0,30.18,ENE,76,1.0,2.0,94,0.00,,---,0.00,51.00,VWS V14.01,2013-10-19 23:40:00,
2013-10-19 16:42:00,49.7,48.0,30.19,NNE,32,0.0,2.0,94,0.00,,---,0.00,51.00,VWS V14.01,2013-10-19 23:42:00,
2013-10-19 16:45:00,49.6,48.0,30.19,NNE,32,1.0,2.0,94,0.00,,---,0.00,49.00,VWS V14.01,2013-10-19 23:45:00,
2013-10-19 16:47:00,49.5,47.8,30.19,North,5,3.0,3.0,94,0.00,,---,0.00,46.00,VWS V14.01,2013-10-19 23:47:00,
2013-10-19 16:50:00,49.5,47.8,30.19,NW,315,5.0,5.0,94,0.00,,---,0.00,46.00,VWS V14.01,2013-10-19 23:50:00,
2013-10-19 16:52:00,49.4,47.8,30.19,NW,326,2.0,5.0,94,0.00,,---,0.00,42.00,VWS V14.01,2013-10-19 23:52:00,
2013-10-19 16:55:00,49.3,47.7,30.19,NW,321,3.0,5.0,94,0.00,,---,0.00,42.00,VWS V14.01,2013-10-19 23:55:00,
2013-10-19 16:57:00,49.2,47.5,30.19,NW,317,2.0,4.0,94,0.00,,---,0.00,37.00,VWS V14.01,2013-10-19 23:57:00,
2013-10-19 17:00:00,49.2,47.5,30.19,NW,316,2.0,4.0,94,0.00,,---,0.00,37.00,VWS V14.01,2013-10-20 00:00:00,
2013-10-19 17:02:00,49.2,47.5,30.19,North,360,2.0,2.0,94,0.00,,---,0.00,32.00,VWS V14.01,2013-10-20 00:02:00,
2013-10-19 17:05:00,49.2,47.5,30.19,NNW,329,1.0,2.0,94,0.00,,---,0.00,32.00,VWS V14.01,2013-10-20 00:05:00,
2013-10-19 17:07:00,49.2,47.8,30.19,North,360,0.0,3.0,95,0.00,,---,0.00,32.00,VWS V14.01,2013-10-20 00:07:00,
2013-10-19 17:10:00,49.2,47.8,30.19,NNW,329,2.0,3.0,95,0.00,,---,0.00,32.00,VWS V14.01,2013-10-20 00:10:00,
2013-10-19 17:12:00,49.2,47.8,30.19,North,355,1.0,4.0,95,0.00,,---,0.00,28.00,VWS V14.01,2013-10-20 00:12:00,
2013-10-19 17:15:00,49.2,47.8,30.19,North,360,2.0,4.0,95,0.00,,---,0.00,30.00,VWS V14.01,2013-10-20 00:15:00,
2013-10-19 17:17:00,49.2,47.8,30.19,North,355,2.0,3.0,95,0.00,,---,0.00,28.00,VWS V14.01,2013-10-20 00:17:00,
2013-10-19 17:20:00,49.2,47.8,30.19,North,355,1.0,3.0,95,0.00,,---,0.00,28.00,VWS V14.01,2013-10-20 00:20:00,
2013-10-19 17:22:00,49.1,47.5,30.19,North,355,0.0,2.0,94,0.00,,---,0.00,25.00,VWS V14.01,2013-10-20 00:22:00,
2013-10-19 17:25:00,49.1,47.5,30.19,North,360,0.0,2.0,94,0.00,,---,0.00,25.00,VWS V14.01,2013-10-20 00:25:00,
2013-10-19 17:27:00,49.1,47.5,30.19,North,360,0.0,0.0,94,0.00,,---,0.00,21.00,VWS V14.01,2013-10-20 00:27:00,
2013-10-19 17:30:00,49.1,47.7,30.19,North,355,0.0,0.0,95,0.00,,---,0.00,21.00,VWS V14.01,2013-10-20 00:30:00,
2013-10-19 17:32:00,49.1,47.7,30.18,North,355,0.0,0.0,95,0.00,,---,0.00,14.00,VWS V14.01,2013-10-20 00:32:00,
2013-10-19 17:35:00,49.1,47.7,30.18,North,360,0.0,0.0,95,0.00,,---,0.00,14.00,VWS V14.01,2013-10-20 00:35:00,
2013-10-19 17:37:00,49.1,47.7,30.19,North,355,0.0,0.0,95,0.00,,---,0.00,14.00,VWS V14.01,2013-10-20 00:37:00,
2013-10-19 17:40:00,49.2,47.8,30.19,North,360,0.0,0.0,95,0.00,,---,0.00,14.00,VWS V14.01,2013-10-20 00:40:00,
2013-10-19 17:42:00,49.1,47.7,30.19,NNW,344,3.0,5.0,95,0.00,,---,0.00,12.00,VWS V14.01,2013-10-20 00:42:00,
2013-10-19 17:45:00,49.1,47.7,30.19,NNW,344,2.0,5.0,95,0.00,,---,0.00,12.00,VWS V14.01,2013-10-20 00:45:00,
2013-10-19 17:47:00,49.0,47.3,30.18,NNW,346,1.0,3.0,94,0.00,,---,0.00,9.00,VWS V14.01,2013-10-20 00:47:00,
2013-10-19 17:50:00,49.0,47.3,30.18,NNW,346,1.0,3.0,94,0.00,,---,0.00,9.00,VWS V14.01,2013-10-20 00:50:00,
2013-10-19 17:52:00,48.8,47.4,30.18,North,360,1.0,2.0,95,0.00,,---,0.00,7.00,VWS V14.01,2013-10-20 00:52:00,
2013-10-19 17:55:00,48.8,47.4,30.18,North,360,1.0,2.0,95,0.00,,---,0.00,7.00,VWS V14.01,2013-10-20 00:55:00,
2013-10-19 17:57:00,48.8,47.4,30.18,NNW,346,0.0,2.0,95,0.00,,---,0.00,5.00,VWS V14.01,2013-10-20 00:57:00,
2013-10-19 18:00:00,48.7,47.3,30.18,NNW,346,0.0,2.0,95,0.00,,---,0.00,5.00,VWS V14.01,2013-10-20 01:00:00,
2013-10-19 18:02:00,48.7,47.3,30.18,North,360,0.0,3.0,95,0.00,,---,0.00,0.00,VWS V14.01,2013-10-20 01:02:00,
2013-10-19 18:05:00,48.7,47.3,30.18,North,360,0.0,3.0,95,0.00,,---,0.00,0.00,VWS V14.01,2013-10-20 01:05:00,
2013-10-19 18:07:00,48.7,47.3,30.18,North,360,0.0,1.0,95,0.00,,---,0.00,0.00,VWS V14.01,2013-10-20 01:07:00,
2013-10-19 18:10:00,48.7,47.3,30.18,North,360,0.0,1.0,95,0.00,,---,0.00,0.00,VWS V14.01,2013-10-20 01:10:00,
2013-10-19 18:12:00,48.7,47.3,30.18,NW,323,2.0,4.0,95,0.00,,---,0.00,0.00,VWS V14.01,2013-10-20 01:12:00,
2013-10-19 18:15:00,48.7,47.3,30.18,NW,323,2.0,4.0,95,0.00,,---,0.00,0.00,VWS V14.01,2013-10-20 01:15:00,
2013-10-19 18:17:00,48.7,47.3,30.19,North,360,3.0,4.0,95,0.00,,---,0.00,0.00,VWS V14.01,2013-10-20 01:17:00,
2013-10-19 18:20:00,48.7,47.3,30.19,NW,324,2.0,4.0,95,0.00,,---,0.00,0.00,VWS V14.01,2013-10-20 01:20:00,
2013-10-19 18:22:00,48.7,47.3,30.19,North,360,3.0,3.0,95,0.00,,---,0.00,0.00,VWS V14.01,2013-10-20 01:22:00,
2013-10-19 18:25:00,48.6,47.2,30.19,North,360,1.0,3.0,95,0.00,,---,0.00,0.00,VWS V14.01,2013-10-20 01:25:00,
2013-10-19 18:27:00,48.7,47.3,30.19,NW,323,0.0,3.0,95,0.00,,---,0.00,0.00,VWS V14.01,2013-10-20 01:27:00,
2013-10-19 18:30:00,48.7,47.3,30.19,NW,323,0.0,3.0,95,0.00,,---,0.00,0.00,VWS V14.01,2013-10-20 01:30:00,
2013-10-19 18:32:00,48.7,47.3,30.19,NW,323,0.0,0.0,95,0.00,,---,0.00,0.00,VWS V14.01,2013-10-20 01:32:00,
2013-10-19 18:35:00,48.7,47.3,30.19,NW,323,0.0,0.0,95,0.00,,---,0.00,0.00,VWS V14.01,2013-10-20 01:35:00,
2013-10-19 18:37:00,48.6,47.2,30.19,North,351,1.0,3.0,95,0.00,,---,0.00,0.00,VWS V14.01,2013-10-20 01:37:00,
2013-10-19 18:40:00,48.6,47.2,30.19,North,351,1.0,3.0,95,0.00,,---,0.00,0.00,VWS V14.01,2013-10-20 01:40:00,
2013-10-19 18:42:00,48.6,47.2,30.19,North,360,0.0,1.0,95,0.00,,---,0.00,0.00,VWS V14.01,2013-10-20 01:42:00,
2013-10-19 18:45:00,48.6,47.2,30.19,North,351,0.0,1.0,95,0.00,,---,0.00,0.00,VWS V14.01,2013-10-20 01:45:00,
2013-10-19 18:47:00,48.6,47.5,30.19,North,350,0.0,0.0,96,0.00,,---,0.00,0.00,VWS V14.01,2013-10-20 01:47:00,
2013-10-19 18:50:00,48.6,47.5,30.19,North,351,0.0,0.0,96,0.00,,---,0.00,0.00,VWS V14.01,2013-10-20 01:50:00,
2013-10-19 18:52:00,48.5,47.4,30.19,North,360,0.0,0.0,96,0.00,,---,0.00,0.00,VWS V14.01,2013-10-20 01:52:00,
2013-10-19 18:55:00,48.5,47.4,30.19,North,351,2.0,2.0,96,0.00,,---,0.00,0.00,VWS V14.01,2013-10-20 01:55:00,
2013-10-19 18:57:00,48.5,47.4,30.19,NNE,13,0.0,3.0,96,0.00,,---,0.00,0.00,VWS V14.01,2013-10-20 01:57:00,
2013-10-19 19:00:00,48.4,47.3,30.19,NNE,13,0.0,3.0,96,0.00,,---,0.00,0.00,VWS V14.01,2013-10-20 02:00:00,
2013-10-19 19:02:00,48.4,47.3,30.19,NNE,13,1.0,2.0,96,0.00,,---,0.00,0.00,VWS V14.01,2013-10-20 02:02:00,
2013-10-19 19:05:00,48.4,47.3,30.19,NNE,13,0.0,2.0,96,0.00,,---,0.00,0.00,VWS V14.01,2013-10-20 02:05:00,
2013-10-19 19:08:00,48.5,47.4,30.19,NNE,13,0.0,0.0,96,0.00,,---,0.00,0.00,VWS V14.01,2013-10-20 02:08:00,
2013-10-19 19:10:00,48.5,47.4,30.19,NNE,13,0.0,0.0,96,0.00,,---,0.00,0.00,VWS V14.01,2013-10-20 02:10:00,
2013-10-19 19:13:00,48.4,47.3,30.19,NNE,13,0.0,0.0,96,0.00,,---,0.00,0.00,VWS V14.01,2013-10-20 02:13:00,
2013-10-19 19:15:00,48.4,47.3,30.19,NNE,13,2.0,2.0,96,0.00,,---,0.00,0.00,VWS V14.01,2013-10-20 02:15:00,
2013-10-19 19:18:00,48.2,46.8,30.20,NNE,19,0.0,2.0,95,0.00,,---,0.00,0.00,VWS V14.01,2013-10-20 02:18:00,
2013-10-19 19:20:00,48.2,46.8,30.20,NNE,19,0.0,2.0,95,0.00,,---,0.00,0.00,VWS V14.01,2013-10-20 02:20:00,
2013-10-19 19:23:00,48.1,46.7,30.20,ENE,59,1.0,1.0,95,0.00,,---,0.00,0.00,VWS V14.01,2013-10-20 02:23:00,
2013-10-19 19:25:00,48.1,46.7,30.20,ENE,58,0.0,2.0,95,0.00,,---,0.00,0.00,VWS V14.01,2013-10-20 02:25:00,
2013-10-19 19:28:00,48.1,47.0,30.20,ENE,59,0.0,2.0,96,0.00,,---,0.00,0.00,VWS V14.01,2013-10-20 02:28:00,
2013-10-19 19:30:00,48.1,47.0,30.20,ENE,61,0.0,2.0,96,0.00,,---,0.00,0.00,VWS V14.01,2013-10-20 02:30:00,
2013-10-19 19:33:00,48.1,47.0,30.20,ENE,61,0.0,1.0,96,0.00,,---,0.00,0.00,VWS V14.01,2013-10-20 02:33:00,
2013-10-19 19:35:00,48.2,47.1,30.20,ENE,61,0.0,1.0,96,0.00,,---,0.00,0.00,VWS V14.01,2013-10-20 02:35:00,
2013-10-19 19:38:00,48.2,47.1,30.20,ENE,61,0.0,0.0,96,0.00,,---,0.00,0.00,VWS V14.01,2013-10-20 02:38:00,
2013-10-19 19:40:00,48.2,47.1,30.20,ENE,60,0.0,0.0,96,0.00,,---,0.00,0.00,VWS V14.01,2013-10-20 02:40:00,
2013-10-19 19:43:00,48.1,47.0,30.20,NNE,32,0.0,2.0,96,0.00,,---,0.00,0.00,VWS V14.01,2013-10-20 02:43:00,
2013-10-19 19:45:00,48.1,47.0,30.20,NNE,32,0.0,2.0,96,0.00,,---,0.00,0.00,VWS V14.01,2013-10-20 02:45:00,
2013-10-19 19:48:00,48.2,47.1,30.20,NNE,32,0.0,1.0,96,0.00,,---,0.00,0.00,VWS V14.01,2013-10-20 02:48:00,
2013-10-19 19:50:00,48.2,47.1,30.20,NNE,32,0.0,1.0,96,0.00,,---,0.00,0.00,VWS V14.01,2013-10-20 02:50:00,
2013-10-19 19:53:00,48.1,47.0,30.20,NNE,13,2.0,2.0,96,0.00,,---,0.00,0.00,VWS V14.01,2013-10-20 02:53:00,
2013-10-19 19:55:00,48.1,47.0,30.20,NNE,13,2.0,2.0,96,0.00,,---,0.00,0.00,VWS V14.01,2013-10-20 02:55:00,
2013-10-19 19:58:00,48.1,47.0,30.20,NNE,13,0.0,2.0,96,0.00,,---,0.00,0.00,VWS V14.01,2013-10-20 02:58:00,
2013-10-19 20:00:00,48.1,47.0,30.20,NNE,13,0.0,2.0,96,0.00,,---,0.00,0.00,VWS V14.01,2013-10-20 03:00:00,
2013-10-19 20:03:00,48.1,47.0,30.20,NNE,21,4.0,4.0,96,0.00,,---,0.00,0.00,VWS V14.01,2013-10-20 03:03:00,
2013-10-19 20:05:00,48.1,47.0,30.20,NNE,33,3.0,4.0,96,0.00,,---,0.00,0.00,VWS V14.01,2013-10-20 03:05:00,
2013-10-19 20:08:00,48.1,47.0,30.20,NNE,28,2.0,4.0,96,0.00,,---,0.00,0.00,VWS V14.01,2013-10-20 03:08:00,
2013-10-19 20:10:00,48.1,47.0,30.20,North,360,3.0,4.0,96,0.00,,---,0.00,0.00,VWS V14.01,2013-10-20 03:10:00,
2013-10-19 20:13:00,48.1,47.0,30.20,North,11,0.0,4.0,96,0.00,,---,0.00,0.00,VWS V14.01,2013-10-20 03:13:00,
2013-10-19 20:15:00,48.1,47.0,30.20,North,11,0.0,4.0,96,0.00,,---,0.00,0.00,VWS V14.01,2013-10-20 03:15:00,
2013-10-19 20:18:00,48.1,47.0,30.20,North,11,0.0,0.0,96,0.00,,---,0.00,0.00,VWS V14.01,2013-10-20 03:18:00,
2013-10-19 20:20:00,48.1,47.0,30.20,North,11,0.0,0.0,96,0.00,,---,0.00,0.00,VWS V14.01,2013-10-20 03:20:00,
2013-10-19 20:23:00,48.0,46.9,30.20,North,11,0.0,1.0,96,0.00,,---,0.00,0.00,VWS V14.01,2013-10-20 03:23:00,
2013-10-19 20:25:00,48.0,46.9,30.20,North,11,0.0,1.0,96,0.00,,---,0.00,0.00,VWS V14.01,2013-10-20 03:25:00,
2013-10-19 20:28:00,47.9,46.8,30.20,North,11,0.0,0.0,96,0.00,,---,0.00,0.00,VWS V14.01,2013-10-20 03:28:00,
2013-10-19 20:30:00,47.9,46.8,30.20,North,11,0.0,0.0,96,0.00,,---,0.00,0.00,VWS V14.01,2013-10-20 03:30:00,
2013-10-19 20:33:00,48.0,47.2,30.20,North,11,0.0,0.0,97,0.00,,---,0.00,0.00,VWS V14.01,2013-10-20 03:33:00,
2013-10-19 20:35:00,48.0,47.2,30.20,North,11,0.0,0.0,97,0.00,,---,0.00,0.00,VWS V14.01,2013-10-20 03:35:00,
2013-10-19 20:38:00,48.0,47.2,30.20,NNE,26,0.0,2.0,97,0.00,,---,0.00,0.00,VWS V14.01,2013-10-20 03:38:00,
2013-10-19 20:40:00,48.0,47.2,30.20,NNE,26,0.0,2.0,97,0.00,,---,0.00,0.00,VWS V14.01,2013-10-20 03:40:00,
2013-10-19 20:43:00,48.0,47.2,30.20,NNE,26,0.0,0.0,97,0.00,,---,0.00,0.00,VWS V14.01,2013-10-20 03:43:00,
2013-10-19 20:45:00,48.0,47.2,30.20,NNE,26,0.0,0.0,97,0.00,,---,0.00,0.00,VWS V14.01,2013-10-20 03:45:00,
2013-10-19 20:48:00,48.0,47.2,30.20,NNE,26,0.0,0.0,97,0.00,,---,0.00,0.00,VWS V14.01,2013-10-20 03:48:00,
2013-10-19 20:50:00,48.0,47.2,30.20,NNE,26,0.0,0.0,97,0.00,,---,0.00,0.00,VWS V14.01,2013-10-20 03:50:00,
2013-10-19 20:53:00,47.9,47.1,30.20,NNE,32,0.0,1.0,97,0.00,,---,0.00,0.00,VWS V14.01,2013-10-20 03:53:00,
2013-10-19 20:55:00,47.9,47.1,30.20,NNE,32,0.0,1.0,97,0.00,,---,0.00,0.00,VWS V14.01,2013-10-20 03:55:00,
2013-10-19 20:58:00,47.8,47.0,30.20,ENE,65,0.0,1.0,97,0.00,,---,0.00,0.00,VWS V14.01,2013-10-20 03:58:00,
2013-10-19 21:00:00,47.8,47.0,30.20,ENE,64,0.0,1.0,97,0.00,,---,0.00,0.00,VWS V14.01,2013-10-20 04:00:00,
2013-10-19 21:01:00,47.8,47.0,30.20,ENE,64,0.0,0.0,97,0.00,,---,0.00,0.00,VWS V14.01,2013-10-20 04:01:00,
2013-10-19 21:02:00,47.8,47.0,30.20,ENE,64,0.0,0.0,97,0.00,,---,0.00,0.00,VWS V14.01,2013-10-20 04:02:00,
2013-10-19 21:05:00,47.8,47.0,30.20,ENE,65,0.0,2.0,97,0.00,,---,0.00,0.00,VWS V14.01,2013-10-20 04:05:00,
2013-10-19 21:07:00,47.7,46.9,30.21,ENE,65,0.0,0.0,97,0.00,,---,0.00,0.00,VWS V14.01,2013-10-20 04:07:00,
2013-10-19 21:10:00,47.7,46.9,30.21,ENE,65,0.0,0.0,97,0.00,,---,0.00,0.00,VWS V14.01,2013-10-20 04:10:00,
2013-10-19 21:12:00,47.7,46.9,30.21,ENE,64,0.0,0.0,97,0.00,,---,0.00,0.00,VWS V14.01,2013-10-20 04:12:00,
2013-10-19 21:15:00,47.7,46.9,30.21,ENE,65,0.0,1.0,97,0.00,,---,0.00,0.00,VWS V14.01,2013-10-20 04:15:00,
2013-10-19 21:17:00,47.7,46.9,30.21,ENE,71,1.0,1.0,97,0.00,,---,0.00,0.00,VWS V14.01,2013-10-20 04:17:00,
2013-10-19 21:20:00,47.7,46.9,30.21,East,80,1.0,2.0,97,0.00,,---,0.00,0.00,VWS V14.01,2013-10-20 04:20:00,
2013-10-19 21:22:00,47.6,46.8,30.21,East,80,0.0,1.0,97,0.00,,---,0.00,0.00,VWS V14.01,2013-10-20 04:22:00,
2013-10-19 21:25:00,47.6,46.8,30.21,East,82,0.0,1.0,97,0.00,,---,0.00,0.00,VWS V14.01,2013-10-20 04:25:00,
2013-10-19 21:27:00,47.6,47.1,30.21,East,80,0.0,0.0,98,0.00,,---,0.00,0.00,VWS V14.01,2013-10-20 04:27:00,
2013-10-19 21:30:00,47.6,47.1,30.21,East,80,0.0,0.0,98,0.00,,---,0.00,0.00,VWS V14.01,2013-10-20 04:30:00,
2013-10-19 21:32:00,47.5,47.0,30.21,East,82,1.0,2.0,98,0.00,,---,0.00,0.00,VWS V14.01,2013-10-20 04:32:00,
2013-10-19 21:35:00,47.5,47.0,30.21,East,81,0.0,2.0,98,0.00,,---,0.00,0.00,VWS V14.01,2013-10-20 04:35:00,
2013-10-19 21:37:00,47.5,47.0,30.21,East,80,0.0,1.0,98,0.00,,---,0.00,0.00,VWS V14.01,2013-10-20 04:37:00,
2013-10-19 21:40:00,47.6,47.1,30.21,East,82,0.0,1.0,98,0.00,,---,0.00,0.00,VWS V14.01,2013-10-20 04:40:00,
2013-10-19 21:42:00,47.6,47.1,30.21,East,81,2.0,2.0,98,0.00,,---,0.00,0.00,VWS V14.01,2013-10-20 04:42:00,
2013-10-19 21:45:00,47.6,47.1,30.21,ENE,74,1.0,2.0,98,0.00,,---,0.00,0.00,VWS V14.01,2013-10-20 04:45:00,
2013-10-19 21:47:00,47.5,47.0,30.21,ENE,75,0.0,1.0,98,0.00,,---,0.00,0.00,VWS V14.01,2013-10-20 04:47:00,
2013-10-19 21:50:00,47.4,46.9,30.21,ENE,74,0.0,1.0,98,0.00,,---,0.00,0.00,VWS V14.01,2013-10-20 04:50:00,
2013-10-19 21:52:00,47.4,46.9,30.21,ENE,74,0.0,1.0,98,0.00,,---,0.00,0.00,VWS V14.01,2013-10-20 04:52:00,
2013-10-19 21:55:00,47.9,47.1,30.20,NNE,32,0.0,1.0,97,0.00,,---,0.00,0.00,VWS V14.01,2013-10-20 04:55:00,
2013-10-19 21:57:00,47.3,46.8,30.21,North,360,0.0,3.0,98,0.00,,---,0.00,0.00,VWS V14.01,2013-10-20 04:57:00,
2013-10-19 22:00:00,47.2,46.7,30.21,North,360,1.0,3.0,98,0.00,,---,0.00,0.00,VWS V14.01,2013-10-20 05:00:00,
2013-10-19 22:02:00,47.1,46.6,30.21,North,360,0.0,2.0,98,0.00,,---,0.00,0.00,VWS V14.01,2013-10-20 05:02:00,
2013-10-19 22:05:00,47.8,47.0,30.20,ENE,65,0.0,2.0,97,0.00,,---,0.00,0.00,VWS V14.01,2013-10-20 05:05:00,
2013-10-19 22:07:00,47.1,46.6,30.21,North,360,1.0,2.0,98,0.00,,---,0.00,0.00,VWS V14.01,2013-10-20 05:07:00,
2013-10-19 22:10:00,47.0,46.5,30.21,North,360,0.0,2.0,98,0.00,,---,0.00,0.00,VWS V14.01,2013-10-20 05:10:00,
2013-10-19 22:12:00,47.0,46.5,30.21,North,355,0.0,3.0,98,0.00,,---,0.00,0.00,VWS V14.01,2013-10-20 05:12:00,
2013-10-19 22:15:00,47.0,46.5,30.21,North,351,2.0,3.0,98,0.00,,---,0.00,0.00,VWS V14.01,2013-10-20 05:15:00,
2013-10-19 22:17:00,46.9,46.4,30.21,North,355,1.0,2.0,98,0.00,,---,0.00,0.00,VWS V14.01,2013-10-20 05:17:00,
2013-10-19 22:20:00,46.9,46.4,30.21,North,355,1.0,2.0,98,0.00,,---,0.00,0.00,VWS V14.01,2013-10-20 05:20:00,
2013-10-19 22:22:00,46.9,46.4,30.22,North,355,0.0,2.0,98,0.00,,---,0.00,0.00,VWS V14.01,2013-10-20 05:22:00,
2013-10-19 22:25:00,46.9,46.4,30.22,North,360,0.0,2.0,98,0.00,,---,0.00,0.00,VWS V14.01,2013-10-20 05:25:00,
2013-10-19 22:27:00,46.9,46.4,30.22,North,355,0.0,2.0,98,0.00,,---,0.00,0.00,VWS V14.01,2013-10-20 05:27:00,
2013-10-19 22:30:00,46.9,46.4,30.22,NNE,32,3.0,3.0,98,0.00,,---,0.00,0.00,VWS V14.01,2013-10-20 05:30:00,
2013-10-19 22:32:00,46.8,46.3,30.22,NNE,31,1.0,3.0,98,0.00,,---,0.00,0.00,VWS V14.01,2013-10-20 05:32:00,
2013-10-19 22:35:00,46.7,46.2,30.22,NNE,32,2.0,3.0,98,0.00,,---,0.00,0.00,VWS V14.01,2013-10-20 05:35:00,
2013-10-19 22:37:00,46.7,46.2,30.22,North,9,1.0,3.0,98,0.00,,---,0.00,0.00,VWS V14.01,2013-10-20 05:37:00,
2013-10-19 22:40:00,46.7,46.2,30.22,North,9,0.0,3.0,98,0.00,,---,0.00,0.00,VWS V14.01,2013-10-20 05:40:00,
2013-10-19 22:42:00,46.6,46.1,30.22,North,360,2.0,3.0,98,0.00,,---,0.00,0.00,VWS V14.01,2013-10-20 05:42:00,
2013-10-19 22:45:00,46.5,46.0,30.22,North,355,2.0,3.0,98,0.00,,---,0.00,0.00,VWS V14.01,2013-10-20 05:45:00,
2013-10-19 22:47:00,46.5,46.0,30.22,North,360,0.0,3.0,98,0.00,,---,0.00,0.00,VWS V14.01,2013-10-20 05:47:00,
2013-10-19 22:50:00,46.5,46.0,30.22,North,355,0.0,3.0,98,0.00,,---,0.00,0.00,VWS V14.01,2013-10-20 05:50:00,
2013-10-19 22:52:00,46.4,45.9,30.22,NNE,26,1.0,2.0,98,0.00,,---,0.00,0.00,VWS V14.01,2013-10-20 05:52:00,
2013-10-19 22:55:00,46.4,45.9,30.22,NNE,26,0.0,2.0,98,0.00,,---,0.00,0.00,VWS V14.01,2013-10-20 05:55:00,
2013-10-19 22:57:00,46.4,45.9,30.22,NNE,14,2.0,3.0,98,0.00,,---,0.00,0.00,VWS V14.01,2013-10-20 05:57:00,
2013-10-19 23:00:00,46.4,45.9,30.22,NNE,14,2.0,3.0,98,0.00,,---,0.00,0.00,VWS V14.01,2013-10-20 06:00:00,
2013-10-19 23:02:00,46.4,45.9,30.22,NNE,14,0.0,2.0,98,0.00,,---,0.00,0.00,VWS V14.01,2013-10-20 06:02:00,
2013-10-19 23:05:00,46.4,45.9,30.22,NNE,14,0.0,2.0,98,0.00,,---,0.00,0.00,VWS V14.01,2013-10-20 06:05:00,
2013-10-19 23:07:00,46.3,45.8,30.22,NNE,14,2.0,2.0,98,0.00,,---,0.00,0.00,VWS V14.01,2013-10-20 06:07:00,
2013-10-19 23:10:00,46.3,46.0,30.22,NNE,14,0.0,2.0,99,0.00,,---,0.00,0.00,VWS V14.01,2013-10-20 06:10:00,
2013-10-19 23:12:00,46.3,46.0,30.22,NNE,14,0.0,1.0,99,0.00,,---,0.00,0.00,VWS V14.01,2013-10-20 06:12:00,
2013-10-19 23:15:00,46.3,46.0,30.22,NNE,14,1.0,1.0,99,0.00,,---,0.00,0.00,VWS V14.01,2013-10-20 06:15:00,
2013-10-19 23:17:00,46.2,45.9,30.22,North,5,2.0,3.0,99,0.00,,---,0.00,0.00,VWS V14.01,2013-10-20 06:17:00,
2013-10-19 23:20:00,46.2,45.9,30.22,North,5,0.0,3.0,99,0.00,,---,0.00,0.00,VWS V14.01,2013-10-20 06:20:00,
2013-10-19 23:22:00,46.1,45.8,30.22,North,5,0.0,1.0,99,0.00,,---,0.00,0.00,VWS V14.01,2013-10-20 06:22:00,
2013-10-19 23:25:00,46.1,45.8,30.22,North,5,0.0,1.0,99,0.00,,---,0.00,0.00,VWS V14.01,2013-10-20 06:25:00,
2013-10-19 23:27:00,46.1,45.8,30.22,North,5,0.0,1.0,99,0.00,,---,0.00,0.00,VWS V14.01,2013-10-20 06:27:00,
2013-10-19 23:30:00,46.1,45.8,30.22,North,5,1.0,1.0,99,0.00,,---,0.00,0.00,VWS V14.01,2013-10-20 06:30:00,
2013-10-19 23:32:00,46.1,45.8,30.22,North,5,1.0,1.0,99,0.00,,---,0.00,0.00,VWS V14.01,2013-10-20 06:32:00,
2013-10-19 23:35:00,46.1,45.8,30.22,North,5,0.0,1.0,99,0.00,,---,0.00,0.00,VWS V14.01,2013-10-20 06:35:00,
2013-10-19 23:37:00,46.1,45.8,30.22,North,5,0.0,1.0,99,0.00,,---,0.00,0.00,VWS V14.01,2013-10-20 06:37:00,
2013-10-19 23:40:00,46.1,45.8,30.22,North,5,0.0,1.0,99,0.00,,---,0.00,0.00,VWS V14.01,2013-10-20 06:40:00,
2013-10-19 23:42:00,46.1,45.8,30.22,North,5,0.0,0.0,99,0.00,,---,0.00,0.00,VWS V14.01,2013-10-20 06:42:00,
2013-10-19 23:45:00,46.1,45.8,30.22,North,5,0.0,0.0,99,0.00,,---,0.00,0.00,VWS V14.01,2013-10-20 06:45:00,
2013-10-19 23:47:00,46.1,45.8,30.22,North,5,0.0,1.0,99,0.00,,---,0.00,0.00,VWS V14.01,2013-10-20 06:47:00,
2013-10-19 23:50:00,46.1,45.8,30.22,North,5,0.0,1.0,99,0.00,,---,0.00,0.00,VWS V14.01,2013-10-20 06:50:00,
2013-10-19 23:52:00,46.0,45.7,30.22,North,5,0.0,2.0,99,0.00,,---,0.00,0.00,VWS V14.01,2013-10-20 06:52:00,
2013-10-19 23:55:00,46.0,45.7,30.22,North,5,0.0,2.0,99,0.00,,---,0.00,0.00,VWS V14.01,2013-10-20 06:55:00,
2013-10-19 23:57:00,45.9,45.6,30.22,North,5,0.0,0.0,99,0.00,,---,0.00,0.00,VWS V14.01,2013-10-20 06:57:00,